Wetterdaten: Sonntag, 16.02.2020
Datum Zeit Temp. Aussen Temp. o. S. Temp +5cm Feuchte Auss Luftdruck Regen Sonnenschein Regendauer Solar Windben Empfang
16.02.2020 00:00 12,3 C 11,7 C 11,1 C 74 % 1010,5 hPa 0,0 l/m 0 min 0 min 0 W/m 25,7 km/h (4 Bft) 100,00 %
16.02.2020 00:02 12,3 C 11,7 C 11,1 C 74 % 1010,4 hPa 0,0 l/m 0 min 0 min 0 W/m 29,0 km/h (5 Bft) 97,62 %
16.02.2020 00:04 12,3 C 11,7 C 11,1 C 74 % 1010,4 hPa 0,0 l/m 0 min 0 min 0 W/m 22,5 km/h (4 Bft) 100,00 %
16.02.2020 00:08 12,3 C 11,7 C 11,1 C 74 % 1010,3 hPa 0,0 l/m 0 min 0 min 0 W/m 32,2 km/h (5 Bft) 100,00 %
16.02.2020 00:10 12,3 C 11,7 C 11,1 C 74 % 1010,2 hPa 0,0 l/m 0 min 0 min 0 W/m 29,0 km/h (5 Bft) 97,87 %
16.02.2020 00:12 12,3 C 11,7 C 11,1 C 74 % 1010,2 hPa 0,0 l/m 0 min 0 min 0 W/m 38,6 km/h (5 Bft) 97,87 %
16.02.2020 00:14 12,3 C 11,7 C 11,1 C 74 % 1010,3 hPa 0,0 l/m 0 min 0 min 0 W/m 38,6 km/h (5 Bft) 97,87 %
16.02.2020 00:16 12,3 C 11,7 C 11,1 C 74 % 1010,2 hPa 0,0 l/m 0 min 0 min 0 W/m 22,5 km/h (4 Bft) 97,83 %
16.02.2020 00:18 12,3 C 11,7 C 11,1 C 74 % 1010,2 hPa 0,0 l/m 0 min 0 min 0 W/m 25,7 km/h (4 Bft) 97,87 %
16.02.2020 00:20 12,3 C 11,7 C 11,1 C 74 % 1010,2 hPa 0,0 l/m 0 min 0 min 0 W/m 29,0 km/h (5 Bft) 97,87 %
16.02.2020 00:22 12,3 C 11,7 C 11,1 C 74 % 1010,2 hPa 0,0 l/m 0 min 0 min 0 W/m 35,4 km/h (5 Bft) 97,87 %
16.02.2020 00:24 12,3 C 11,7 C 11,1 C 75 % 1010,1 hPa 0,0 l/m 0 min 0 min 0 W/m 45,1 km/h (6 Bft) 97,87 %
16.02.2020 00:26 12,4 C 11,7 C 11,1 C 75 % 1010,3 hPa 0,0 l/m 0 min 0 min 0 W/m 29,0 km/h (5 Bft) 97,87 %
16.02.2020 00:28 12,4 C 11,7 C 11,1 C 75 % 1010,3 hPa 0,0 l/m 0 min 0 min 0 W/m 35,4 km/h (5 Bft) 97,83 %
16.02.2020 00:30 12,4 C 11,7 C 11,1 C 75 % 1010,2 hPa 0,0 l/m 0 min 0 min 0 W/m 35,4 km/h (5 Bft) 97,87 %
16.02.2020 00:32 12,4 C 11,7 C 11,1 C 75 % 1010,3 hPa 0,0 l/m 0 min 0 min 0 W/m 29,0 km/h (5 Bft) 95,74 %
16.02.2020 00:34 12,4 C 11,7 C 11,1 C 75 % 1010,2 hPa 0,0 l/m 0 min 0 min 0 W/m 38,6 km/h (5 Bft) 95,74 %
16.02.2020 00:36 12,5 C 11,7 C 11,1 C 75 % 1010,2 hPa 0,0 l/m 0 min 0 min 0 W/m 22,5 km/h (4 Bft) 97,87 %
16.02.2020 00:38 12,5 C 11,7 C 11,1 C 75 % 1010,3 hPa 0,0 l/m 0 min 0 min 0 W/m 25,7 km/h (4 Bft) 97,87 %
16.02.2020 00:40 12,5 C 11,7 C 11,1 C 75 % 1010,3 hPa 0,0 l/m 0 min 0 min 0 W/m 22,5 km/h (4 Bft) 97,83 %
16.02.2020 00:42 12,5 C 11,7 C 11,1 C 75 % 1010,3 hPa 0,0 l/m 0 min 0 min 0 W/m 32,2 km/h (5 Bft) 97,87 %
16.02.2020 00:44 12,6 C 12,2 C 11,1 C 75 % 1010,3 hPa 0,0 l/m 0 min 0 min 0 W/m 29,0 km/h (5 Bft) 97,87 %
16.02.2020 00:46 12,6 C 12,2 C 11,1 C 75 % 1010,3 hPa 0,0 l/m 0 min 0 min 0 W/m 35,4 km/h (5 Bft) 97,87 %
16.02.2020 00:48 12,6 C 11,7 C 11,1 C 75 % 1010,1 hPa 0,0 l/m 0 min 0 min 0 W/m 22,5 km/h (4 Bft) 97,87 %
16.02.2020 00:50 12,6 C 12,2 C 11,1 C 75 % 1010,1 hPa 0,0 l/m 0 min 0 min 0 W/m 29,0 km/h (5 Bft) 97,87 %
16.02.2020 00:52 12,6 C 12,2 C 11,1 C 75 % 1010,1 hPa 0,0 l/m 0 min 0 min 0 W/m 38,6 km/h (5 Bft) 97,83 %
16.02.2020 00:54 12,6 C 12,2 C 11,1 C 75 % 1010,1 hPa 0,0 l/m 0 min 0 min 0 W/m 38,6 km/h (5 Bft) 97,87 %
16.02.2020 00:56 12,6 C 12,2 C 11,7 C 75 % 1010,1 hPa 0,0 l/m 0 min 0 min 0 W/m 29,0 km/h (5 Bft) 97,87 %
16.02.2020 00:58 12,7 C 12,2 C 11,1 C 75 % 1010,2 hPa 0,0 l/m 0 min 0 min 0 W/m 25,7 km/h (4 Bft) 97,87 %
16.02.2020 01:00 12,7 C 12,2 C 11,1 C 75 % 1010,2 hPa 0,0 l/m 0 min 0 min 0 W/m 41,8 km/h (6 Bft) 97,87 %
16.02.2020 01:02 12,7 C 12,2 C 11,7 C 75 % 1010,2 hPa 0,0 l/m 0 min 0 min 0 W/m 29,0 km/h (5 Bft) 97,83 %
16.02.2020 01:04 12,7 C 12,2 C 11,7 C 75 % 1010,2 hPa 0,0 l/m 0 min 0 min 0 W/m 38,6 km/h (5 Bft) 97,87 %
16.02.2020 01:06 12,7 C 12,2 C 11,7 C 75 % 1010,2 hPa 0,0 l/m 0 min 0 min 0 W/m 19,3 km/h (3 Bft) 97,87 %
16.02.2020 01:08 12,7 C 12,2 C 11,7 C 75 % 1010,2 hPa 0,0 l/m 0 min 0 min 0 W/m 32,2 km/h (5 Bft) 100,00 %
16.02.2020 01:10 12,8 C 12,2 C 11,7 C 75 % 1010,2 hPa 0,0 l/m 0 min 0 min 0 W/m 32,2 km/h (5 Bft) 100,00 %
16.02.2020 01:12 12,8 C 12,2 C 11,7 C 75 % 1010,2 hPa 0,0 l/m 0 min 0 min 0 W/m 22,5 km/h (4 Bft) 100,00 %
16.02.2020 01:14 12,8 C 12,2 C 11,7 C 75 % 1010,3 hPa 0,0 l/m 0 min 0 min 0 W/m 32,2 km/h (5 Bft) 100,00 %
16.02.2020 01:16 12,8 C 12,2 C 11,7 C 76 % 1010,3 hPa 0,0 l/m 0 min 0 min 0 W/m 25,7 km/h (4 Bft) 100,00 %
16.02.2020 01:18 12,8 C 12,2 C 11,7 C 76 % 1010,3 hPa 0,0 l/m 0 min 0 min 0 W/m 32,2 km/h (5 Bft) 97,87 %
16.02.2020 01:20 12,8 C 12,2 C 11,7 C 76 % 1010,2 hPa 0,0 l/m 0 min 0 min 0 W/m 32,2 km/h (5 Bft) 100,00 %
16.02.2020 01:22 12,8 C 12,2 C 11,7 C 76 % 1010,1 hPa 0,0 l/m 0 min 0 min 0 W/m 29,0 km/h (5 Bft) 100,00 %
16.02.2020 01:24 12,8 C 12,2 C 11,7 C 76 % 1010,1 hPa 0,0 l/m 0 min 0 min 0 W/m 32,2 km/h (5 Bft) 100,00 %
16.02.2020 01:26 12,8 C 12,2 C 11,7 C 76 % 1010,1 hPa 0,0 l/m 0 min 0 min 0 W/m 22,5 km/h (4 Bft) 100,00 %
16.02.2020 01:28 12,8 C 12,2 C 11,7 C 76 % 1010,0 hPa 0,0 l/m 0 min 0 min 0 W/m 25,7 km/h (4 Bft) 97,87 %
16.02.2020 01:30 12,8 C 12,2 C 11,7 C 76 % 1010,0 hPa 0,0 l/m 0 min 0 min 0 W/m 32,2 km/h (5 Bft) 100,00 %
16.02.2020 01:32 12,8 C 12,2 C 11,7 C 76 % 1009,9 hPa 0,0 l/m 0 min 0 min 0 W/m 25,7 km/h (4 Bft) 97,87 %
16.02.2020 01:34 12,8 C 12,2 C 11,7 C 76 % 1009,8 hPa 0,0 l/m 0 min 0 min 0 W/m 29,0 km/h (5 Bft) 95,74 %
16.02.2020 01:36 12,8 C 12,2 C 11,7 C 76 % 1009,9 hPa 0,0 l/m 0 min 0 min 0 W/m 35,4 km/h (5 Bft) 93,62 %
16.02.2020 01:38 12,8 C 12,2 C 11,7 C 76 % 1009,9 hPa 0,0 l/m 0 min 0 min 0 W/m 25,7 km/h (4 Bft) 95,65 %
16.02.2020 01:40 12,8 C 12,2 C 11,7 C 76 % 1009,9 hPa 0,0 l/m 0 min 0 min 0 W/m 16,1 km/h (3 Bft) 95,74 %
16.02.2020 01:42 12,8 C 12,2 C 11,7 C 76 % 1009,9 hPa 0,0 l/m 0 min 0 min 0 W/m 38,6 km/h (5 Bft) 95,74 %
16.02.2020 01:44 12,8 C 12,2 C 11,7 C 76 % 1009,7 hPa 0,0 l/m 0 min 0 min 0 W/m 32,2 km/h (5 Bft) 95,74 %
16.02.2020 01:46 12,8 C 12,2 C 11,7 C 77 % 1009,8 hPa 0,0 l/m 0 min 0 min 0 W/m 22,5 km/h (4 Bft) 93,62 %
16.02.2020 01:48 12,8 C 12,2 C 11,7 C 77 % 1009,7 hPa 0,0 l/m 0 min 0 min 0 W/m 29,0 km/h (5 Bft) 93,62 %
16.02.2020 01:50 12,9 C 12,2 C 11,7 C 77 % 1009,8 hPa 0,0 l/m 0 min 0 min 0 W/m 22,5 km/h (4 Bft) 95,65 %
16.02.2020 01:52 12,9 C 12,2 C 11,7 C 77 % 1009,7 hPa 0,0 l/m 0 min 0 min 0 W/m 25,7 km/h (4 Bft) 95,74 %
16.02.2020 01:54 12,9 C 12,2 C 11,7 C 77 % 1009,8 hPa 0,0 l/m 0 min 0 min 0 W/m 22,5 km/h (4 Bft) 95,74 %
16.02.2020 01:56 12,9 C 12,2 C 11,7 C 77 % 1009,7 hPa 0,0 l/m 0 min 0 min 0 W/m 29,0 km/h (5 Bft) 95,74 %
16.02.2020 01:58 12,9 C 12,2 C 11,7 C 77 % 1009,7 hPa 0,0 l/m 0 min 0 min 0 W/m 22,5 km/h (4 Bft) 95,74 %
16.02.2020 02:00 12,9 C 12,2 C 11,7 C 77 % 1009,6 hPa 0,0 l/m 0 min 0 min 0 W/m 29,0 km/h (5 Bft) 95,74 %
16.02.2020 02:02 12,9 C 12,2 C 11,7 C 77 % 1009,5 hPa 0,0 l/m 0 min 0 min 0 W/m 22,5 km/h (4 Bft) 95,65 %
16.02.2020 02:04 12,9 C 12,2 C 11,7 C 77 % 1009,5 hPa 0,0 l/m 0 min 0 min 0 W/m 22,5 km/h (4 Bft) 95,74 %
16.02.2020 02:06 12,9 C 12,2 C 11,7 C 77 % 1009,5 hPa 0,0 l/m 0 min 0 min 0 W/m 25,7 km/h (4 Bft) 91,49 %
16.02.2020 02:08 12,9 C 12,2 C 11,7 C 77 % 1009,4 hPa 0,0 l/m 0 min 0 min 0 W/m 29,0 km/h (5 Bft) 95,74 %
16.02.2020 02:10 12,9 C 12,2 C 11,7 C 77 % 1009,3 hPa 0,0 l/m 0 min 0 min 0 W/m 29,0 km/h (5 Bft) 95,74 %
16.02.2020 02:12 13,0 C 12,2 C 11,7 C 77 % 1009,3 hPa 0,0 l/m 0 min 0 min 0 W/m 29,0 km/h (5 Bft) 95,65 %
16.02.2020 02:14 13,0 C 12,2 C 11,7 C 77 % 1009,3 hPa 0,0 l/m 0 min 0 min 0 W/m 19,3 km/h (3 Bft) 95,74 %
16.02.2020 02:16 13,0 C 12,2 C 11,7 C 77 % 1009,3 hPa 0,0 l/m 0 min 0 min 0 W/m 32,2 km/h (5 Bft) 93,62 %
16.02.2020 02:18 13,0 C 12,2 C 11,7 C 77 % 1009,2 hPa 0,0 l/m 0 min 0 min 0 W/m 32,2 km/h (5 Bft) 97,87 %
16.02.2020 02:20 13,0 C 12,2 C 11,7 C 77 % 1009,2 hPa 0,0 l/m 0 min 0 min 0 W/m 32,2 km/h (5 Bft) 97,87 %
16.02.2020 02:22 13,0 C 12,2 C 11,7 C 77 % 1009,2 hPa 0,0 l/m 0 min 0 min 0 W/m 35,4 km/h (5 Bft) 97,87 %
16.02.2020 02:24 13,1 C 12,2 C 11,7 C 77 % 1009,1 hPa 0,0 l/m 0 min 0 min 0 W/m 29,0 km/h (5 Bft) 100,00 %
16.02.2020 02:26 13,1 C 12,2 C 11,7 C 77 % 1009,1 hPa 0,0 l/m 0 min 0 min 0 W/m 41,8 km/h (6 Bft) 100,00 %
16.02.2020 02:28 13,1 C 12,2 C 11,7 C 77 % 1009,2 hPa 0,0 l/m 0 min 0 min 0 W/m 32,2 km/h (5 Bft) 100,00 %
16.02.2020 02:30 13,1 C 12,2 C 11,7 C 77 % 1009,1 hPa 0,0 l/m 0 min 0 min 0 W/m 35,4 km/h (5 Bft) 100,00 %
16.02.2020 02:32 13,1 C 12,2 C 11,7 C 77 % 1009,1 hPa 0,0 l/m 0 min 0 min 0 W/m 25,7 km/h (4 Bft) 95,74 %
16.02.2020 02:34 13,1 C 12,2 C 11,7 C 77 % 1009,2 hPa 0,0 l/m 0 min 0 min 0 W/m 45,1 km/h (6 Bft) 100,00 %
16.02.2020 02:36 13,1 C 12,2 C 11,7 C 77 % 1009,2 hPa 0,0 l/m 0 min 0 min 0 W/m 29,0 km/h (5 Bft) 100,00 %
16.02.2020 02:38 13,1 C 12,2 C 11,7 C 77 % 1009,1 hPa 0,0 l/m 0 min 0 min 0 W/m 16,1 km/h (3 Bft) 100,00 %
16.02.2020 02:40 13,1 C 12,2 C 11,7 C 77 % 1009,0 hPa 0,0 l/m 0 min 0 min 0 W/m 32,2 km/h (5 Bft) 100,00 %
16.02.2020 02:42 13,1 C 12,2 C 11,7 C 77 % 1009,0 hPa 0,0 l/m 0 min 0 min 0 W/m 25,7 km/h (4 Bft) 100,00 %
16.02.2020 02:44 13,1 C 12,2 C 11,7 C 77 % 1009,1 hPa 0,0 l/m 0 min 0 min 0 W/m 41,8 km/h (6 Bft) 100,00 %
16.02.2020 02:46 13,2 C 12,2 C 11,7 C 77 % 1009,1 hPa 0,0 l/m 0 min 0 min 0 W/m 22,5 km/h (4 Bft) 100,00 %
16.02.2020 02:48 13,2 C 12,2 C 11,7 C 77 % 1009,0 hPa 0,0 l/m 0 min 0 min 0 W/m 25,7 km/h (4 Bft) 100,00 %
16.02.2020 02:50 13,2 C 12,2 C 11,7 C 77 % 1009,1 hPa 0,0 l/m 0 min 0 min 0 W/m 22,5 km/h (4 Bft) 97,87 %
16.02.2020 02:52 13,2 C 12,8 C 11,7 C 77 % 1009,1 hPa 0,0 l/m 0 min 0 min 0 W/m 41,8 km/h (6 Bft) 100,00 %
16.02.2020 02:54 13,2 C 12,8 C 11,7 C 77 % 1009,2 hPa 0,0 l/m 0 min 0 min 0 W/m 38,6 km/h (5 Bft) 100,00 %
16.02.2020 02:56 13,2 C 12,8 C 11,7 C 77 % 1009,4 hPa 0,0 l/m 0 min 0 min 0 W/m 25,7 km/h (4 Bft) 100,00 %
16.02.2020 02:58 13,2 C 12,8 C 11,7 C 77 % 1009,2 hPa 0,0 l/m 0 min 0 min 0 W/m 25,7 km/h (4 Bft) 100,00 %
16.02.2020 03:00 13,2 C 12,8 C 11,7 C 77 % 1009,2 hPa 0,0 l/m 0 min 0 min 0 W/m 16,1 km/h (3 Bft) 100,00 %
16.02.2020 03:02 13,2 C 12,2 C 11,7 C 77 % 1009,2 hPa 0,0 l/m 0 min 0 min 0 W/m 29,0 km/h (5 Bft) 100,00 %
16.02.2020 03:04 13,2 C 12,8 C 11,7 C 77 % 1009,3 hPa 0,0 l/m 0 min 0 min 0 W/m 19,3 km/h (3 Bft) 97,87 %
16.02.2020 03:06 13,2 C 12,8 C 11,7 C 77 % 1009,2 hPa 0,0 l/m 0 min 0 min 0 W/m 22,5 km/h (4 Bft) 100,00 %
16.02.2020 03:08 13,2 C 12,8 C 11,7 C 77 % 1009,1 hPa 0,0 l/m 0 min 0 min 0 W/m 22,5 km/h (4 Bft) 100,00 %
16.02.2020 03:10 13,3 C 12,8 C 11,7 C 77 % 1009,2 hPa 0,0 l/m 0 min 0 min 0 W/m 29,0 km/h (5 Bft) 100,00 %
16.02.2020 03:12 13,3 C 12,8 C 11,7 C 77 % 1009,0 hPa 0,0 l/m 0 min 0 min 0 W/m 35,4 km/h (5 Bft) 100,00 %
16.02.2020 03:14 13,3 C 12,8 C 11,7 C 77 % 1009,1 hPa 0,0 l/m 0 min 0 min 0 W/m 35,4 km/h (5 Bft) 100,00 %
16.02.2020 03:16 13,3 C 12,8 C 11,7 C 77 % 1009,1 hPa 0,0 l/m 0 min 0 min 0 W/m 29,0 km/h (5 Bft) 100,00 %
16.02.2020 03:18 13,3 C 12,8 C 12,2 C 77 % 1009,1 hPa 0,0 l/m 0 min 0 min 0 W/m 38,6 km/h (5 Bft) 100,00 %
16.02.2020 03:20 13,3 C 12,8 C 12,2 C 77 % 1008,9 hPa 0,0 l/m 0 min 0 min 0 W/m 32,2 km/h (5 Bft) 100,00 %
16.02.2020 03:22 13,4 C 12,8 C 12,2 C 76 % 1009,2 hPa 0,0 l/m 0 min 0 min 0 W/m 38,6 km/h (5 Bft) 100,00 %
16.02.2020 03:24 13,4 C 12,8 C 12,2 C 76 % 1009,0 hPa 0,0 l/m 0 min 0 min 0 W/m 35,4 km/h (5 Bft) 100,00 %
16.02.2020 03:26 13,4 C 12,8 C 12,2 C 76 % 1008,9 hPa 0,0 l/m 0 min 0 min 0 W/m 32,2 km/h (5 Bft) 100,00 %
16.02.2020 03:28 13,4 C 12,8 C 12,2 C 76 % 1008,9 hPa 0,0 l/m 0 min 0 min 0 W/m 38,6 km/h (5 Bft) 100,00 %
16.02.2020 03:30 13,5 C 12,8 C 12,2 C 76 % 1009,0 hPa 0,0 l/m 0 min 0 min 0 W/m 25,7 km/h (4 Bft) 100,00 %
16.02.2020 03:32 13,5 C 12,8 C 12,2 C 76 % 1008,8 hPa 0,0 l/m 0 min 0 min 0 W/m 22,5 km/h (4 Bft) 100,00 %
16.02.2020 03:34 13,5 C 12,8 C 12,2 C 76 % 1008,9 hPa 0,0 l/m 0 min 0 min 0 W/m 38,6 km/h (5 Bft) 100,00 %
16.02.2020 03:36 13,5 C 12,8 C 12,2 C 76 % 1008,8 hPa 0,0 l/m 0 min 0 min 0 W/m 38,6 km/h (5 Bft) 100,00 %
16.02.2020 03:38 13,6 C 12,8 C 12,2 C 76 % 1008,8 hPa 0,0 l/m 0 min 0 min 0 W/m 35,4 km/h (5 Bft) 97,87 %
16.02.2020 03:40 13,6 C 12,8 C 12,2 C 76 % 1008,8 hPa 0,0 l/m 0 min 0 min 0 W/m 38,6 km/h (5 Bft) 97,87 %
16.02.2020 03:42 13,6 C 13,3 C 12,2 C 76 % 1008,7 hPa 0,0 l/m 0 min 0 min 0 W/m 38,6 km/h (5 Bft) 100,00 %
16.02.2020 03:44 13,6 C 12,8 C 12,2 C 76 % 1008,7 hPa 0,0 l/m 0 min 0 min 0 W/m 35,4 km/h (5 Bft) 97,87 %
16.02.2020 03:46 13,7 C 12,8 C 12,2 C 76 % 1008,6 hPa 0,0 l/m 0 min 0 min 0 W/m 29,0 km/h (5 Bft) 95,65 %
16.02.2020 03:48 13,7 C 12,8 C 12,2 C 76 % 1008,5 hPa 0,0 l/m 0 min 0 min 0 W/m 29,0 km/h (5 Bft) 97,87 %
16.02.2020 03:50 13,7 C 12,8 C 12,2 C 76 % 1008,5 hPa 0,0 l/m 0 min 0 min 0 W/m 29,0 km/h (5 Bft) 97,87 %
16.02.2020 03:52 13,7 C 12,8 C 12,2 C 76 % 1008,4 hPa 0,0 l/m 0 min 0 min 0 W/m 25,7 km/h (4 Bft) 97,87 %
16.02.2020 03:54 13,7 C 12,8 C 12,2 C 76 % 1008,3 hPa 0,0 l/m 0 min 0 min 0 W/m 22,5 km/h (4 Bft) 97,87 %
16.02.2020 03:56 13,7 C 12,8 C 12,2 C 76 % 1008,4 hPa 0,0 l/m 0 min 0 min 0 W/m 29,0 km/h (5 Bft) 97,87 %
16.02.2020 03:58 13,6 C 12,8 C 12,2 C 76 % 1008,3 hPa 0,0 l/m 0 min 0 min 0 W/m 22,5 km/h (4 Bft) 97,83 %
16.02.2020 04:00 13,7 C 12,8 C 12,2 C 76 % 1008,3 hPa 0,0 l/m 0 min 0 min 0 W/m 25,7 km/h (4 Bft) 97,87 %
16.02.2020 04:02 13,7 C 12,8 C 12,2 C 76 % 1008,3 hPa 0,0 l/m 0 min 0 min 0 W/m 35,4 km/h (5 Bft) 100,00 %
16.02.2020 04:04 13,7 C 12,8 C 12,2 C 76 % 1008,2 hPa 0,0 l/m 0 min 0 min 0 W/m 32,2 km/h (5 Bft) 95,74 %
16.02.2020 04:06 13,7 C 12,8 C 12,2 C 76 % 1008,2 hPa 0,0 l/m 0 min 0 min 0 W/m 22,5 km/h (4 Bft) 97,87 %
16.02.2020 04:08 13,7 C 12,8 C 12,2 C 76 % 1008,2 hPa 0,0 l/m 0 min 0 min 0 W/m 25,7 km/h (4 Bft) 100,00 %
16.02.2020 04:10 13,7 C 12,8 C 12,2 C 76 % 1008,2 hPa 0,0 l/m 0 min 0 min 0 W/m 22,5 km/h (4 Bft) 97,83 %
16.02.2020 04:12 13,7 C 12,8 C 12,2 C 76 % 1008,2 hPa 0,0 l/m 0 min 0 min 0 W/m 35,4 km/h (5 Bft) 95,74 %
16.02.2020 04:14 13,7 C 12,8 C 12,2 C 76 % 1008,0 hPa 0,0 l/m 0 min 0 min 0 W/m 35,4 km/h (5 Bft) 93,62 %
16.02.2020 04:16 13,7 C 12,8 C 12,2 C 76 % 1008,1 hPa 0,0 l/m 0 min 0 min 0 W/m 25,7 km/h (4 Bft) 95,74 %
16.02.2020 04:18 13,7 C 12,8 C 12,2 C 76 % 1008,1 hPa 0,0 l/m 0 min 0 min 0 W/m 25,7 km/h (4 Bft) 95,74 %
16.02.2020 04:20 13,7 C 12,8 C 12,2 C 76 % 1008,0 hPa 0,0 l/m 0 min 0 min 0 W/m 35,4 km/h (5 Bft) 93,62 %
16.02.2020 04:22 13,7 C 12,8 C 12,2 C 76 % 1008,0 hPa 0,0 l/m 0 min 0 min 0 W/m 32,2 km/h (5 Bft) 93,48 %
16.02.2020 04:24 13,7 C 12,8 C 12,2 C 76 % 1008,1 hPa 0,0 l/m 0 min 0 min 0 W/m 29,0 km/h (5 Bft) 91,49 %
16.02.2020 04:26 13,7 C 12,8 C 12,2 C 76 % 1008,0 hPa 0,0 l/m 0 min 0 min 0 W/m 29,0 km/h (5 Bft) 95,74 %
16.02.2020 04:28 13,7 C 12,8 C 12,2 C 76 % 1008,0 hPa 0,0 l/m 0 min 0 min 0 W/m 32,2 km/h (5 Bft) 95,74 %
16.02.2020 04:30 13,7 C 12,8 C 12,2 C 76 % 1008,0 hPa 0,0 l/m 0 min 0 min 0 W/m 32,2 km/h (5 Bft) 95,74 %
16.02.2020 04:32 13,7 C 12,8 C 12,2 C 76 % 1007,8 hPa 0,0 l/m 0 min 0 min 0 W/m 32,2 km/h (5 Bft) 93,48 %
16.02.2020 04:34 13,7 C 12,2 C 12,2 C 76 % 1007,7 hPa 0,0 l/m 0 min 2 min 0 W/m 19,3 km/h (3 Bft) 93,62 %
16.02.2020 04:36 13,7 C 11,7 C 11,7 C 77 % 1007,7 hPa 0,0 l/m 0 min 2 min 0 W/m 38,6 km/h (5 Bft) 95,74 %
16.02.2020 04:38 13,7 C 11,7 C 11,7 C 77 % 1007,8 hPa 0,0 l/m 0 min 2 min 0 W/m 35,4 km/h (5 Bft) 95,74 %
16.02.2020 04:40 13,7 C 12,2 C 11,7 C 77 % 1007,8 hPa 0,0 l/m 0 min 0 min 0 W/m 41,8 km/h (6 Bft) 95,74 %
16.02.2020 04:42 13,7 C 12,8 C 11,7 C 77 % 1007,7 hPa 0,0 l/m 0 min 0 min 0 W/m 19,3 km/h (3 Bft) 93,62 %
16.02.2020 04:44 13,7 C 12,8 C 11,7 C 77 % 1007,7 hPa 0,0 l/m 0 min 0 min 0 W/m 29,0 km/h (5 Bft) 95,65 %
16.02.2020 04:46 13,7 C 12,8 C 12,2 C 77 % 1007,6 hPa 0,0 l/m 0 min 0 min 0 W/m 51,5 km/h (7 Bft) 95,74 %
16.02.2020 04:48 13,7 C 12,8 C 12,2 C 77 % 1007,6 hPa 0,0 l/m 0 min 0 min 0 W/m 45,1 km/h (6 Bft) 95,74 %
16.02.2020 04:50 13,7 C 12,8 C 12,2 C 77 % 1007,7 hPa 0,0 l/m 0 min 0 min 0 W/m 35,4 km/h (5 Bft) 95,74 %
16.02.2020 04:52 13,7 C 12,8 C 12,2 C 76 % 1007,5 hPa 0,0 l/m 0 min 0 min 0 W/m 41,8 km/h (6 Bft) 93,62 %
16.02.2020 04:54 13,7 C 12,8 C 12,2 C 76 % 1007,6 hPa 0,0 l/m 0 min 0 min 0 W/m 29,0 km/h (5 Bft) 95,74 %
16.02.2020 04:56 13,7 C 12,8 C 12,2 C 76 % 1007,6 hPa 0,0 l/m 0 min 0 min 0 W/m 41,8 km/h (6 Bft) 97,83 %
16.02.2020 04:58 13,7 C 12,8 C 12,2 C 76 % 1007,6 hPa 0,0 l/m 0 min 0 min 0 W/m 25,7 km/h (4 Bft) 97,87 %
16.02.2020 05:00 13,8 C 13,3 C 12,2 C 76 % 1007,7 hPa 0,0 l/m 0 min 0 min 0 W/m 48,3 km/h (6 Bft) 97,87 %
16.02.2020 05:02 13,8 C 13,3 C 12,2 C 76 % 1007,6 hPa 0,0 l/m 0 min 0 min 0 W/m 41,8 km/h (6 Bft) 97,87 %
16.02.2020 05:04 13,8 C 13,3 C 12,2 C 76 % 1007,8 hPa 0,0 l/m 0 min 0 min 0 W/m 48,3 km/h (6 Bft) 97,87 %
16.02.2020 05:06 13,9 C 13,3 C 12,2 C 76 % 1007,6 hPa 0,0 l/m 0 min 0 min 0 W/m 57,9 km/h (7 Bft) 97,87 %
16.02.2020 05:08 14,0 C 13,3 C 12,8 C 76 % 1007,6 hPa 0,0 l/m 0 min 0 min 0 W/m 61,2 km/h (7 Bft) 97,83 %
16.02.2020 05:10 14,0 C 13,3 C 12,2 C 76 % 1007,6 hPa 0,0 l/m 0 min 2 min 0 W/m 45,1 km/h (6 Bft) 97,87 %
16.02.2020 05:12 14,1 C 12,8 C 12,2 C 77 % 1007,6 hPa 0,0 l/m 0 min 2 min 0 W/m 51,5 km/h (7 Bft) 95,74 %
16.02.2020 05:14 14,1 C 12,8 C 12,2 C 77 % 1007,5 hPa 0,0 l/m 0 min 2 min 0 W/m 45,1 km/h (6 Bft) 97,87 %
16.02.2020 05:16 14,1 C 12,8 C 11,7 C 77 % 1007,5 hPa 0,0 l/m 0 min 2 min 0 W/m 54,7 km/h (7 Bft) 97,87 %
16.02.2020 05:18 14,1 C 11,7 C 11,7 C 78 % 1007,6 hPa 0,0 l/m 0 min 2 min 0 W/m 32,2 km/h (5 Bft) 95,74 %
16.02.2020 05:20 14,1 C 11,1 C 11,1 C 78 % 1007,6 hPa 0,0 l/m 0 min 2 min 0 W/m 51,5 km/h (7 Bft) 97,83 %
16.02.2020 05:22 14,0 C 11,1 C 10,6 C 79 % 1007,2 hPa 0,0 l/m 0 min 2 min 0 W/m 57,9 km/h (7 Bft) 97,87 %
16.02.2020 05:24 13,9 C 11,1 C 10,6 C 80 % 1007,2 hPa 0,0 l/m 0 min 2 min 0 W/m 45,1 km/h (6 Bft) 97,87 %
16.02.2020 05:26 13,9 C 10,6 C 10,0 C 80 % 1007,5 hPa 0,0 l/m 0 min 2 min 0 W/m 35,4 km/h (5 Bft) 100,00 %
16.02.2020 05:28 13,8 C 10,6 C 10,0 C 81 % 1007,3 hPa 0,0 l/m 0 min 2 min 0 W/m 45,1 km/h (6 Bft) 100,00 %
16.02.2020 05:30 13,7 C 10,6 C 10,0 C 81 % 1007,3 hPa 0,2 l/m 0 min 2 min 0 W/m 41,8 km/h (6 Bft) 100,00 %
16.02.2020 05:32 13,6 C 10,6 C 10,0 C 82 % 1007,3 hPa 0,0 l/m 0 min 2 min 0 W/m 41,8 km/h (6 Bft) 100,00 %
16.02.2020 05:34 13,6 C 10,0 C 10,0 C 83 % 1007,2 hPa 0,0 l/m 0 min 2 min 0 W/m 38,6 km/h (5 Bft) 100,00 %
16.02.2020 05:36 13,4 C 10,0 C 10,0 C 83 % 1007,3 hPa 0,0 l/m 0 min 2 min 0 W/m 48,3 km/h (6 Bft) 100,00 %
16.02.2020 05:38 13,3 C 10,0 C 10,0 C 84 % 1007,1 hPa 0,0 l/m 0 min 2 min 0 W/m 54,7 km/h (7 Bft) 100,00 %
16.02.2020 05:40 13,3 C 10,0 C 10,0 C 84 % 1007,1 hPa 0,2 l/m 0 min 2 min 0 W/m 45,1 km/h (6 Bft) 100,00 %
16.02.2020 05:42 13,2 C 10,0 C 9,4 C 85 % 1007,1 hPa 0,0 l/m 0 min 2 min 0 W/m 32,2 km/h (5 Bft) 100,00 %
16.02.2020 05:44 13,1 C 10,0 C 9,4 C 85 % 1007,0 hPa 0,2 l/m 0 min 2 min 0 W/m 48,3 km/h (6 Bft) 100,00 %
16.02.2020 05:46 13,1 C 10,0 C 9,4 C 86 % 1007,1 hPa 0,0 l/m 0 min 2 min 0 W/m 45,1 km/h (6 Bft) 100,00 %
16.02.2020 05:48 12,9 C 10,0 C 9,4 C 86 % 1007,1 hPa 0,0 l/m 0 min 2 min 0 W/m 38,6 km/h (5 Bft) 100,00 %
16.02.2020 05:50 12,9 C 10,0 C 9,4 C 87 % 1006,9 hPa 0,0 l/m 0 min 2 min 0 W/m 57,9 km/h (7 Bft) 100,00 %
16.02.2020 05:52 12,8 C 10,0 C 9,4 C 87 % 1007,1 hPa 0,0 l/m 0 min 2 min 0 W/m 29,0 km/h (5 Bft) 100,00 %
16.02.2020 05:54 12,8 C 10,0 C 9,4 C 87 % 1006,9 hPa 0,0 l/m 0 min 2 min 0 W/m 48,3 km/h (6 Bft) 100,00 %
16.02.2020 05:56 12,7 C 10,0 C 9,4 C 87 % 1006,8 hPa 0,0 l/m 0 min 2 min 0 W/m 38,6 km/h (5 Bft) 100,00 %
16.02.2020 05:58 12,7 C 10,0 C 9,4 C 88 % 1007,1 hPa 0,0 l/m 0 min 2 min 0 W/m 38,6 km/h (5 Bft) 100,00 %
16.02.2020 06:00 12,6 C 10,0 C 9,4 C 88 % 1006,9 hPa 0,2 l/m 0 min 2 min 0 W/m 41,8 km/h (6 Bft) 100,00 %
16.02.2020 06:02 12,6 C 10,0 C 9,4 C 88 % 1006,9 hPa 0,0 l/m 0 min 2 min 0 W/m 38,6 km/h (5 Bft) 100,00 %
16.02.2020 06:04 12,6 C 10,0 C 9,4 C 88 % 1006,9 hPa 0,2 l/m 0 min 2 min 0 W/m 41,8 km/h (6 Bft) 100,00 %
16.02.2020 06:06 12,6 C 10,0 C 9,4 C 89 % 1006,9 hPa 0,0 l/m 0 min 2 min 0 W/m 22,5 km/h (4 Bft) 100,00 %
16.02.2020 06:08 12,5 C 10,0 C 9,4 C 89 % 1007,0 hPa 0,0 l/m 0 min 2 min 0 W/m 29,0 km/h (5 Bft) 100,00 %
16.02.2020 06:10 12,4 C 10,0 C 9,4 C 89 % 1006,9 hPa 0,0 l/m 0 min 2 min 0 W/m 38,6 km/h (5 Bft) 100,00 %
16.02.2020 06:12 12,4 C 10,0 C 9,4 C 89 % 1006,7 hPa 0,0 l/m 0 min 2 min 0 W/m 51,5 km/h (7 Bft) 100,00 %
16.02.2020 06:14 12,4 C 10,0 C 9,4 C 89 % 1006,9 hPa 0,0 l/m 0 min 2 min 0 W/m 54,7 km/h (7 Bft) 100,00 %
16.02.2020 06:16 12,4 C 10,0 C 9,4 C 90 % 1006,8 hPa 0,2 l/m 0 min 2 min 0 W/m 35,4 km/h (5 Bft) 100,00 %
16.02.2020 06:18 12,4 C 10,0 C 9,4 C 90 % 1006,8 hPa 0,0 l/m 0 min 2 min 0 W/m 32,2 km/h (5 Bft) 100,00 %
16.02.2020 06:20 12,3 C 10,0 C 9,4 C 90 % 1006,8 hPa 0,0 l/m 0 min 2 min 0 W/m 32,2 km/h (5 Bft) 100,00 %
16.02.2020 06:22 12,3 C 10,0 C 9,4 C 90 % 1006,8 hPa 0,0 l/m 0 min 2 min 0 W/m 41,8 km/h (6 Bft) 100,00 %
16.02.2020 06:24 12,3 C 10,0 C 9,4 C 90 % 1006,8 hPa 0,0 l/m 0 min 2 min 0 W/m 35,4 km/h (5 Bft) 100,00 %
16.02.2020 06:26 12,3 C 10,0 C 9,4 C 91 % 1006,7 hPa 0,0 l/m 0 min 2 min 0 W/m 25,7 km/h (4 Bft) 100,00 %
16.02.2020 06:28 12,3 C 10,0 C 9,4 C 91 % 1006,6 hPa 0,0 l/m 0 min 2 min 0 W/m 32,2 km/h (5 Bft) 100,00 %
16.02.2020 06:30 12,2 C 10,0 C 9,4 C 91 % 1006,7 hPa 0,0 l/m 0 min 2 min 0 W/m 35,4 km/h (5 Bft) 100,00 %
16.02.2020 06:32 12,3 C 10,0 C 9,4 C 91 % 1006,8 hPa 0,2 l/m 0 min 2 min 0 W/m 32,2 km/h (5 Bft) 100,00 %
16.02.2020 06:34 12,2 C 10,6 C 10,0 C 91 % 1006,8 hPa 0,0 l/m 0 min 2 min 0 W/m 51,5 km/h (7 Bft) 100,00 %
16.02.2020 06:36 12,3 C 10,0 C 9,4 C 91 % 1006,9 hPa 0,0 l/m 0 min 2 min 0 W/m 32,2 km/h (5 Bft) 100,00 %
16.02.2020 06:38 12,2 C 10,0 C 10,0 C 91 % 1006,7 hPa 0,0 l/m 0 min 2 min 0 W/m 32,2 km/h (5 Bft) 100,00 %
16.02.2020 06:40 12,2 C 10,0 C 10,0 C 91 % 1006,8 hPa 0,0 l/m 0 min 2 min 0 W/m 38,6 km/h (5 Bft) 100,00 %
16.02.2020 06:42 12,2 C 10,0 C 9,4 C 91 % 1006,7 hPa 0,0 l/m 0 min 2 min 0 W/m 25,7 km/h (4 Bft) 97,87 %
16.02.2020 06:44 12,2 C 10,0 C 9,4 C 91 % 1006,8 hPa 0,0 l/m 0 min 2 min 0 W/m 32,2 km/h (5 Bft) 100,00 %
16.02.2020 06:46 12,2 C 10,0 C 10,0 C 91 % 1006,6 hPa 0,0 l/m 0 min 2 min 0 W/m 61,2 km/h (7 Bft) 100,00 %
16.02.2020 06:48 12,2 C 10,0 C 9,4 C 91 % 1006,6 hPa 0,0 l/m 0 min 2 min 0 W/m 25,7 km/h (4 Bft) 100,00 %
16.02.2020 06:50 12,2 C 10,0 C 9,4 C 91 % 1006,5 hPa 0,0 l/m 0 min 2 min 0 W/m 45,1 km/h (6 Bft) 100,00 %
16.02.2020 06:52 12,2 C 10,0 C 9,4 C 91 % 1006,6 hPa 0,0 l/m 0 min 2 min 0 W/m 48,3 km/h (6 Bft) 100,00 %
16.02.2020 06:54 12,2 C 10,0 C 10,0 C 91 % 1006,5 hPa 0,0 l/m 0 min 2 min 0 W/m 48,3 km/h (6 Bft) 100,00 %
16.02.2020 06:56 12,3 C 10,0 C 9,4 C 91 % 1006,6 hPa 0,0 l/m 0 min 2 min 0 W/m 35,4 km/h (5 Bft) 100,00 %
16.02.2020 06:58 12,3 C 10,0 C 9,4 C 91 % 1006,4 hPa 0,0 l/m 0 min 2 min 0 W/m 35,4 km/h (5 Bft) 100,00 %
16.02.2020 07:00 12,3 C 10,0 C 9,4 C 91 % 1006,5 hPa 0,2 l/m 0 min 2 min 0 W/m 57,9 km/h (7 Bft) 95,74 %
16.02.2020 07:02 12,3 C 10,0 C 9,4 C 91 % 1006,2 hPa 0,0 l/m 0 min 2 min 0 W/m 51,5 km/h (7 Bft) 100,00 %
16.02.2020 07:04 12,3 C 10,0 C 9,4 C 91 % 1006,4 hPa 0,0 l/m 0 min 2 min 0 W/m 51,5 km/h (7 Bft) 96,00 %
16.02.2020 07:06 12,3 C 10,0 C 9,4 C 91 % 1006,3 hPa 0,0 l/m 0 min 2 min 0 W/m 41,8 km/h (6 Bft) 97,87 %
16.02.2020 07:08 12,3 C 10,0 C 9,4 C 91 % 1006,3 hPa 0,2 l/m 0 min 2 min 0 W/m 48,3 km/h (6 Bft) 97,87 %
16.02.2020 07:10 12,3 C 10,0 C 9,4 C 91 % 1006,2 hPa 0,0 l/m 0 min 2 min 0 W/m 41,8 km/h (6 Bft) 95,65 %
16.02.2020 07:12 12,3 C 10,0 C 9,4 C 91 % 1006,2 hPa 0,0 l/m 0 min 2 min 0 W/m 29,0 km/h (5 Bft) 93,62 %
16.02.2020 07:14 12,3 C 10,6 C 9,4 C 91 % 1006,2 hPa 0,0 l/m 0 min 2 min 0 W/m 41,8 km/h (6 Bft) 95,74 %
16.02.2020 07:16 12,3 C 10,0 C 9,4 C 91 % 1006,3 hPa 0,0 l/m 0 min 2 min 0 W/m 74,0 km/h (8 Bft) 95,74 %
16.02.2020 07:18 12,3 C 10,0 C 9,4 C 91 % 1006,2 hPa 0,0 l/m 0 min 2 min 0 W/m 41,8 km/h (6 Bft) 93,62 %
16.02.2020 07:20 12,3 C 10,0 C 9,4 C 91 % 1006,1 hPa 0,0 l/m 0 min 2 min 0 W/m 41,8 km/h (6 Bft) 93,62 %
16.02.2020 07:22 12,3 C 10,0 C 9,4 C 91 % 1006,0 hPa 0,0 l/m 0 min 2 min 0 W/m 48,3 km/h (6 Bft) 95,65 %
16.02.2020 07:24 12,3 C 10,0 C 9,4 C 91 % 1006,1 hPa 0,0 l/m 0 min 2 min 0 W/m 38,6 km/h (5 Bft) 52,27 %
16.02.2020 07:26 12,3 C 10,0 C 9,4 C 91 % 1006,1 hPa 0,0 l/m 0 min 2 min 0 W/m 22,5 km/h (4 Bft) 93,62 %
16.02.2020 07:28 12,3 C 10,0 C 10,0 C 91 % 1006,0 hPa 0,0 l/m 0 min 2 min 0 W/m 48,3 km/h (6 Bft) 93,62 %
16.02.2020 07:30 12,3 C 10,6 C 10,0 C 91 % 1006,0 hPa 0,0 l/m 0 min 2 min 0 W/m 35,4 km/h (5 Bft) 91,49 %
16.02.2020 07:32 12,3 C 10,6 C 10,0 C 91 % 1005,9 hPa 0,0 l/m 0 min 2 min 0 W/m 35,4 km/h (5 Bft) 91,30 %
16.02.2020 07:34 12,3 C 10,6 C 10,0 C 91 % 1005,8 hPa 0,0 l/m 0 min 2 min 0 W/m 38,6 km/h (5 Bft) 93,62 %
16.02.2020 07:36 12,3 C 10,6 C 10,0 C 91 % 1005,9 hPa 0,0 l/m 0 min 2 min 0 W/m 64,4 km/h (8 Bft) 93,62 %
16.02.2020 07:38 12,4 C 10,6 C 10,0 C 91 % 1005,9 hPa 0,0 l/m 0 min 2 min 0 W/m 41,8 km/h (6 Bft) 91,49 %
16.02.2020 07:40 12,4 C 11,1 C 10,0 C 91 % 1005,9 hPa 0,0 l/m 0 min 2 min 0 W/m 48,3 km/h (6 Bft) 93,62 %
16.02.2020 07:42 12,5 C 11,1 C 10,0 C 90 % 1005,9 hPa 0,0 l/m 0 min 2 min 0 W/m 45,1 km/h (6 Bft) 91,49 %
16.02.2020 07:44 12,6 C 11,1 C 10,0 C 90 % 1005,8 hPa 0,0 l/m 0 min 2 min 0 W/m 41,8 km/h (6 Bft) 95,65 %
16.02.2020 07:46 12,6 C 11,1 C 10,0 C 90 % 1005,9 hPa 0,0 l/m 0 min 2 min 0 W/m 48,3 km/h (6 Bft) 95,74 %
16.02.2020 07:48 12,6 C 11,1 C 10,0 C 89 % 1005,8 hPa 0,0 l/m 0 min 2 min 0 W/m 48,3 km/h (6 Bft) 91,49 %
16.02.2020 07:50 12,7 C 11,1 C 10,0 C 89 % 1005,8 hPa 0,0 l/m 0 min 2 min 0 W/m 38,6 km/h (5 Bft) 97,87 %
16.02.2020 07:52 12,7 C 11,1 C 10,6 C 89 % 1005,7 hPa 0,0 l/m 0 min 2 min 0 W/m 54,7 km/h (7 Bft) 93,62 %
16.02.2020 07:54 12,8 C 11,7 C 10,6 C 88 % 1005,7 hPa 0,0 l/m 0 min 2 min 0 W/m 67,6 km/h (8 Bft) 95,74 %
16.02.2020 07:56 12,8 C 11,7 C 10,6 C 88 % 1005,7 hPa 0,0 l/m 0 min 2 min 0 W/m 38,6 km/h (5 Bft) 95,65 %
16.02.2020 07:58 12,9 C 11,7 C 10,6 C 88 % 1005,7 hPa 0,0 l/m 0 min 2 min 0 W/m 32,2 km/h (5 Bft) 95,74 %
16.02.2020 08:00 12,9 C 11,7 C 10,6 C 87 % 1005,8 hPa 0,0 l/m 0 min 2 min 4 W/m 54,7 km/h (7 Bft) 95,74 %
16.02.2020 08:02 12,9 C 11,7 C 10,6 C 87 % 1005,8 hPa 0,0 l/m 0 min 0 min 5 W/m 57,9 km/h (7 Bft) 93,62 %
16.02.2020 08:04 13,0 C 12,2 C 10,6 C 87 % 1005,8 hPa 0,0 l/m 0 min 2 min 8 W/m 48,3 km/h (6 Bft) 95,74 %
16.02.2020 08:06 13,1 C 12,2 C 10,6 C 86 % 1006,4 hPa 0,0 l/m 0 min 2 min 8 W/m 61,2 km/h (7 Bft) 93,62 %
16.02.2020 08:08 13,1 C 12,8 C 10,6 C 86 % 1005,8 hPa 0,0 l/m 0 min 0 min 9 W/m 54,7 km/h (7 Bft) 94,83 %
16.02.2020 08:10 13,2 C 12,2 C 10,6 C 86 % 1005,7 hPa 0,0 l/m 0 min 0 min 9 W/m 41,8 km/h (6 Bft) 100,00 %
16.02.2020 08:12 13,2 C 12,8 C 10,6 C 85 % 1005,6 hPa 0,0 l/m 0 min 0 min 9 W/m 48,3 km/h (6 Bft) 97,87 %
16.02.2020 08:14 13,2 C 12,8 C 10,6 C 85 % 1005,7 hPa 0,0 l/m 0 min 0 min 9 W/m 70,8 km/h (8 Bft) 95,74 %
16.02.2020 08:16 13,3 C 12,8 C 10,6 C 85 % 1005,6 hPa 0,0 l/m 0 min 0 min 9 W/m 67,6 km/h (8 Bft) 97,87 %
16.02.2020 08:18 13,3 C 12,8 C 10,6 C 84 % 1005,5 hPa 0,0 l/m 0 min 0 min 9 W/m 38,6 km/h (5 Bft) 100,00 %
16.02.2020 08:20 13,3 C 12,8 C 10,6 C 84 % 1005,7 hPa 0,0 l/m 0 min 0 min 9 W/m 48,3 km/h (6 Bft) 100,00 %
16.02.2020 08:22 13,3 C 12,8 C 10,6 C 84 % 1005,7 hPa 0,0 l/m 0 min 0 min 9 W/m 51,5 km/h (7 Bft) 100,00 %
16.02.2020 08:24 13,4 C 12,8 C 10,6 C 84 % 1005,6 hPa 0,0 l/m 0 min 0 min 8 W/m 51,5 km/h (7 Bft) 100,00 %
16.02.2020 08:26 13,4 C 12,8 C 10,6 C 84 % 1005,7 hPa 0,0 l/m 0 min 0 min 9 W/m 45,1 km/h (6 Bft) 100,00 %
16.02.2020 08:28 13,4 C 12,8 C 10,6 C 83 % 1005,5 hPa 0,0 l/m 0 min 0 min 11 W/m 51,5 km/h (7 Bft) 100,00 %
16.02.2020 08:30 13,4 C 12,8 C 11,1 C 83 % 1005,5 hPa 0,0 l/m 0 min 0 min 12 W/m 45,1 km/h (6 Bft) 100,00 %
16.02.2020 08:32 13,4 C 12,8 C 11,7 C 83 % 1005,6 hPa 0,0 l/m 0 min 0 min 12 W/m 25,7 km/h (4 Bft) 100,00 %
16.02.2020 08:34 13,4 C 12,8 C 11,7 C 83 % 1005,5 hPa 0,0 l/m 0 min 0 min 12 W/m 41,8 km/h (6 Bft) 100,00 %
16.02.2020 08:36 13,5 C 12,8 C 12,2 C 83 % 1005,2 hPa 0,0 l/m 0 min 0 min 11 W/m 48,3 km/h (6 Bft) 95,74 %
16.02.2020 08:38 13,6 C 12,8 C 12,2 C 82 % 1005,7 hPa 0,0 l/m 0 min 0 min 12 W/m 74,0 km/h (8 Bft) 100,00 %
16.02.2020 08:40 13,6 C 12,8 C 12,2 C 82 % 1005,4 hPa 0,0 l/m 0 min 0 min 15 W/m 54,7 km/h (7 Bft) 100,00 %
16.02.2020 08:42 13,6 C 12,8 C 12,2 C 82 % 1005,8 hPa 0,0 l/m 0 min 0 min 16 W/m 51,5 km/h (7 Bft) 100,00 %
16.02.2020 08:44 13,6 C 13,3 C 12,2 C 82 % 1005,4 hPa 0,0 l/m 0 min 0 min 18 W/m 57,9 km/h (7 Bft) 97,87 %
16.02.2020 08:46 13,7 C 13,3 C 12,2 C 82 % 1005,5 hPa 0,0 l/m 0 min 0 min 18 W/m 41,8 km/h (6 Bft) 100,00 %
16.02.2020 08:48 13,7 C 13,3 C 12,2 C 81 % 1005,5 hPa 0,0 l/m 0 min 0 min 18 W/m 45,1 km/h (6 Bft) 100,00 %
16.02.2020 08:50 13,7 C 13,3 C 12,2 C 81 % 1005,4 hPa 0,0 l/m 0 min 0 min 18 W/m 45,1 km/h (6 Bft) 100,00 %
16.02.2020 08:52 13,7 C 13,3 C 12,2 C 81 % 1005,4 hPa 0,0 l/m 0 min 0 min 18 W/m 54,7 km/h (7 Bft) 100,00 %
16.02.2020 08:54 13,8 C 13,3 C 12,2 C 81 % 1005,2 hPa 0,0 l/m 0 min 0 min 19 W/m 48,3 km/h (6 Bft) 97,83 %
16.02.2020 08:56 13,8 C 13,3 C 12,2 C 81 % 1005,3 hPa 0,0 l/m 0 min 0 min 20 W/m 61,2 km/h (7 Bft) 100,00 %
16.02.2020 08:58 13,8 C 13,3 C 12,2 C 80 % 1005,2 hPa 0,0 l/m 0 min 0 min 19 W/m 48,3 km/h (6 Bft) 100,00 %
16.02.2020 09:00 13,8 C 13,3 C 12,8 C 80 % 1005,3 hPa 0,0 l/m 0 min 0 min 28 W/m 45,1 km/h (6 Bft) 100,00 %
16.02.2020 09:02 13,9 C 13,3 C 12,8 C 80 % 1005,2 hPa 0,0 l/m 0 min 0 min 26 W/m 54,7 km/h (7 Bft) 97,87 %
16.02.2020 09:04 13,9 C 13,3 C 12,2 C 79 % 1005,1 hPa 0,0 l/m 0 min 0 min 21 W/m 35,4 km/h (5 Bft) 100,00 %
16.02.2020 09:06 13,9 C 13,3 C 12,2 C 79 % 1005,4 hPa 0,0 l/m 0 min 0 min 16 W/m 57,9 km/h (7 Bft) 97,83 %
16.02.2020 09:08 14,0 C 13,3 C 12,8 C 79 % 1005,2 hPa 0,0 l/m 0 min 0 min 17 W/m 41,8 km/h (6 Bft) 100,00 %
16.02.2020 09:10 14,0 C 13,3 C 12,8 C 78 % 1005,0 hPa 0,0 l/m 0 min 0 min 16 W/m 45,1 km/h (6 Bft) 100,00 %
16.02.2020 09:12 14,1 C 13,3 C 12,8 C 78 % 1005,0 hPa 0,0 l/m 0 min 0 min 16 W/m 41,8 km/h (6 Bft) 97,87 %
16.02.2020 09:14 14,1 C 13,3 C 12,8 C 78 % 1005,0 hPa 0,0 l/m 0 min 0 min 18 W/m 48,3 km/h (6 Bft) 100,00 %
16.02.2020 09:16 14,1 C 13,3 C 12,8 C 77 % 1005,0 hPa 0,0 l/m 0 min 0 min 22 W/m 70,8 km/h (8 Bft) 100,00 %
16.02.2020 09:18 14,2 C 13,9 C 12,8 C 77 % 1005,1 hPa 0,0 l/m 0 min 0 min 25 W/m 51,5 km/h (7 Bft) 100,00 %
16.02.2020 09:20 14,2 C 13,3 C 12,8 C 77 % 1005,0 hPa 0,0 l/m 0 min 0 min 25 W/m 67,6 km/h (8 Bft) 97,87 %
16.02.2020 09:22 14,2 C 13,9 C 12,8 C 77 % 1005,1 hPa 0,0 l/m 0 min 0 min 23 W/m 45,1 km/h (6 Bft) 97,87 %
16.02.2020 09:24 14,3 C 13,9 C 12,8 C 76 % 1005,0 hPa 0,0 l/m 0 min 0 min 19 W/m 57,9 km/h (7 Bft) 100,00 %
16.02.2020 09:26 14,3 C 13,9 C 12,8 C 76 % 1004,8 hPa 0,0 l/m 0 min 0 min 19 W/m 45,1 km/h (6 Bft) 100,00 %
16.02.2020 09:28 14,3 C 13,9 C 12,8 C 76 % 1005,0 hPa 0,0 l/m 0 min 0 min 19 W/m 48,3 km/h (6 Bft) 100,00 %
16.02.2020 09:30 14,3 C 13,9 C 12,8 C 76 % 1005,2 hPa 0,0 l/m 0 min 0 min 19 W/m 48,3 km/h (6 Bft) 100,00 %
16.02.2020 09:32 14,3 C 13,9 C 12,8 C 76 % 1005,4 hPa 0,0 l/m 0 min 0 min 19 W/m 54,7 km/h (7 Bft) 100,00 %
16.02.2020 09:34 14,3 C 13,9 C 12,8 C 75 % 1005,8 hPa 0,0 l/m 0 min 0 min 22 W/m 48,3 km/h (6 Bft) 100,00 %
16.02.2020 09:36 14,3 C 13,9 C 12,8 C 75 % 1005,3 hPa 0,0 l/m 0 min 0 min 24 W/m 61,2 km/h (7 Bft) 95,74 %
16.02.2020 09:38 14,3 C 13,9 C 12,8 C 75 % 1005,5 hPa 0,0 l/m 0 min 0 min 23 W/m 70,8 km/h (8 Bft) 95,74 %
16.02.2020 09:40 14,4 C 13,9 C 12,8 C 75 % 1005,3 hPa 0,0 l/m 0 min 0 min 26 W/m 67,6 km/h (8 Bft) 97,83 %
16.02.2020 09:42 14,4 C 13,9 C 12,8 C 75 % 1005,1 hPa 0,0 l/m 0 min 0 min 32 W/m 51,5 km/h (7 Bft) 95,74 %
16.02.2020 09:44 14,4 C 13,9 C 12,8 C 75 % 1005,1 hPa 0,0 l/m 0 min 0 min 38 W/m 61,2 km/h (7 Bft) 97,87 %
16.02.2020 09:46 14,5 C 13,9 C 12,8 C 74 % 1004,9 hPa 0,0 l/m 0 min 0 min 40 W/m 48,3 km/h (6 Bft) 97,87 %
16.02.2020 09:48 14,5 C 13,9 C 12,8 C 74 % 1004,9 hPa 0,0 l/m 0 min 0 min 39 W/m 32,2 km/h (5 Bft) 97,87 %
16.02.2020 09:50 14,5 C 13,9 C 12,8 C 74 % 1004,8 hPa 0,0 l/m 0 min 0 min 36 W/m 61,2 km/h (7 Bft) 97,87 %
16.02.2020 09:52 14,6 C 13,9 C 13,3 C 74 % 1004,8 hPa 0,0 l/m 0 min 0 min 33 W/m 48,3 km/h (6 Bft) 97,87 %
16.02.2020 09:54 14,6 C 13,9 C 13,3 C 74 % 1004,8 hPa 0,0 l/m 0 min 0 min 33 W/m 45,1 km/h (6 Bft) 97,83 %
16.02.2020 09:56 14,6 C 13,9 C 13,3 C 74 % 1004,8 hPa 0,0 l/m 0 min 0 min 39 W/m 48,3 km/h (6 Bft) 95,74 %
16.02.2020 09:58 14,6 C 13,9 C 13,3 C 73 % 1004,9 hPa 0,0 l/m 0 min 0 min 35 W/m 48,3 km/h (6 Bft) 97,87 %
16.02.2020 10:00 14,6 C 13,9 C 13,3 C 73 % 1004,6 hPa 0,0 l/m 0 min 0 min 32 W/m 57,9 km/h (7 Bft) 97,87 %
16.02.2020 10:02 14,7 C 13,9 C 13,3 C 73 % 1004,7 hPa 0,0 l/m 0 min 0 min 41 W/m 41,8 km/h (6 Bft) 97,87 %
16.02.2020 10:04 14,7 C 13,9 C 13,3 C 73 % 1004,6 hPa 0,0 l/m 0 min 0 min 46 W/m 45,1 km/h (6 Bft) 97,83 %
16.02.2020 10:06 14,7 C 14,4 C 13,3 C 73 % 1004,5 hPa 0,0 l/m 0 min 0 min 43 W/m 48,3 km/h (6 Bft) 97,87 %
16.02.2020 10:08 14,7 C 14,4 C 13,3 C 72 % 1004,6 hPa 0,0 l/m 0 min 0 min 47 W/m 45,1 km/h (6 Bft) 97,87 %
16.02.2020 10:10 14,8 C 14,4 C 13,3 C 72 % 1004,6 hPa 0,0 l/m 0 min 0 min 48 W/m 38,6 km/h (5 Bft) 97,87 %
16.02.2020 10:12 14,8 C 14,4 C 13,3 C 72 % 1004,6 hPa 0,0 l/m 0 min 0 min 46 W/m 38,6 km/h (5 Bft) 97,87 %
16.02.2020 10:14 14,8 C 14,4 C 13,3 C 72 % 1004,7 hPa 0,0 l/m 0 min 0 min 46 W/m 61,2 km/h (7 Bft) 93,62 %
16.02.2020 10:16 14,9 C 14,4 C 13,9 C 72 % 1004,6 hPa 0,0 l/m 0 min 0 min 50 W/m 38,6 km/h (5 Bft) 89,13 %
16.02.2020 10:18 14,9 C 14,4 C 13,9 C 72 % 1004,6 hPa 0,0 l/m 0 min 0 min 52 W/m 48,3 km/h (6 Bft) 95,74 %
16.02.2020 10:20 14,9 C 14,4 C 13,9 C 72 % 1004,5 hPa 0,0 l/m 0 min 0 min 46 W/m 29,0 km/h (5 Bft) 97,87 %
16.02.2020 10:22 14,9 C 14,4 C 13,3 C 72 % 1004,5 hPa 0,0 l/m 0 min 0 min 41 W/m 35,4 km/h (5 Bft) 97,87 %
16.02.2020 10:24 14,9 C 14,4 C 13,9 C 71 % 1004,4 hPa 0,0 l/m 0 min 0 min 45 W/m 64,4 km/h (8 Bft) 95,74 %
16.02.2020 10:26 15,0 C 14,4 C 13,9 C 71 % 1004,5 hPa 0,0 l/m 0 min 0 min 41 W/m 41,8 km/h (6 Bft) 97,87 %
16.02.2020 10:28 15,0 C 14,4 C 13,3 C 71 % 1004,6 hPa 0,0 l/m 0 min 0 min 43 W/m 48,3 km/h (6 Bft) 100,00 %
16.02.2020 10:30 15,0 C 14,4 C 13,3 C 71 % 1004,7 hPa 0,0 l/m 0 min 0 min 38 W/m 45,1 km/h (6 Bft) 97,87 %
16.02.2020 10:32 15,1 C 14,4 C 13,3 C 71 % 1004,7 hPa 0,0 l/m 0 min 0 min 37 W/m 51,5 km/h (7 Bft) 91,49 %
16.02.2020 10:34 15,1 C 14,4 C 13,3 C 71 % 1004,7 hPa 0,0 l/m 0 min 0 min 30 W/m 41,8 km/h (6 Bft) 97,87 %
16.02.2020 10:36 15,1 C 14,4 C 13,3 C 71 % 1004,6 hPa 0,0 l/m 0 min 0 min 30 W/m 35,4 km/h (5 Bft) 97,87 %
16.02.2020 10:38 15,1 C 14,4 C 13,3 C 71 % 1004,8 hPa 0,0 l/m 0 min 0 min 37 W/m 45,1 km/h (6 Bft) 95,74 %
16.02.2020 10:40 15,1 C 14,4 C 13,9 C 71 % 1004,7 hPa 0,0 l/m 0 min 0 min 37 W/m 45,1 km/h (6 Bft) 97,83 %
16.02.2020 10:42 15,1 C 14,4 C 13,3 C 71 % 1004,6 hPa 0,0 l/m 0 min 0 min 39 W/m 41,8 km/h (6 Bft) 95,74 %
16.02.2020 10:44 15,2 C 14,4 C 13,9 C 70 % 1004,7 hPa 0,0 l/m 0 min 0 min 41 W/m 51,5 km/h (7 Bft) 95,74 %
16.02.2020 10:46 15,2 C 14,4 C 13,9 C 70 % 1004,7 hPa 0,0 l/m 0 min 0 min 51 W/m 35,4 km/h (5 Bft) 95,74 %
16.02.2020 10:48 15,2 C 15,0 C 13,9 C 71 % 1004,7 hPa 0,0 l/m 0 min 0 min 62 W/m 48,3 km/h (6 Bft) 97,87 %
16.02.2020 10:50 15,3 C 15,0 C 13,9 C 71 % 1004,7 hPa 0,0 l/m 0 min 0 min 69 W/m 48,3 km/h (6 Bft) 95,65 %
16.02.2020 10:52 15,3 C 15,0 C 13,9 C 70 % 1004,7 hPa 0,0 l/m 0 min 0 min 91 W/m 48,3 km/h (6 Bft) 95,74 %
16.02.2020 10:54 15,3 C 15,0 C 14,4 C 70 % 1004,7 hPa 0,0 l/m 0 min 0 min 136 W/m 45,1 km/h (6 Bft) 93,62 %
16.02.2020 10:56 15,4 C 15,0 C 14,4 C 70 % 1004,8 hPa 0,0 l/m 0 min 0 min 112 W/m 51,5 km/h (7 Bft) 95,74 %
16.02.2020 10:58 15,4 C 15,0 C 14,4 C 70 % 1004,7 hPa 0,0 l/m 0 min 0 min 101 W/m 35,4 km/h (5 Bft) 93,62 %
16.02.2020 11:00 15,5 C 15,6 C 14,4 C 70 % 1004,8 hPa 0,0 l/m 0 min 0 min 121 W/m 61,2 km/h (7 Bft) 93,62 %
16.02.2020 11:02 15,6 C 15,6 C 14,4 C 70 % 1004,6 hPa 0,0 l/m 0 min 0 min 134 W/m 41,8 km/h (6 Bft) 95,65 %
16.02.2020 11:04 15,6 C 15,6 C 14,4 C 70 % 1004,7 hPa 0,0 l/m 0 min 0 min 153 W/m 41,8 km/h (6 Bft) 95,74 %
16.02.2020 11:06 15,7 C 15,6 C 14,4 C 70 % 1004,7 hPa 0,0 l/m 0 min 0 min 154 W/m 41,8 km/h (6 Bft) 93,62 %
16.02.2020 11:08 15,7 C 15,6 C 14,4 C 69 % 1004,7 hPa 0,0 l/m 0 min 0 min 142 W/m 57,9 km/h (7 Bft) 93,62 %
16.02.2020 11:10 15,8 C 15,6 C 15,0 C 70 % 1004,7 hPa 0,0 l/m 0 min 0 min 129 W/m 48,3 km/h (6 Bft) 95,74 %
16.02.2020 11:12 15,8 C 15,6 C 14,4 C 69 % 1004,8 hPa 0,0 l/m 0 min 0 min 135 W/m 61,2 km/h (7 Bft) 95,74 %
16.02.2020 11:14 15,9 C 15,6 C 15,0 C 69 % 1004,7 hPa 0,0 l/m 0 min 0 min 150 W/m 45,1 km/h (6 Bft) 95,65 %
16.02.2020 11:16 15,9 C 16,1 C 15,0 C 69 % 1004,7 hPa 0,0 l/m 0 min 0 min 193 W/m 48,3 km/h (6 Bft) 95,74 %
16.02.2020 11:18 15,9 C 16,1 C 15,0 C 69 % 1004,6 hPa 0,0 l/m 0 min 0 min 169 W/m 45,1 km/h (6 Bft) 93,62 %
16.02.2020 11:20 16,0 C 15,6 C 15,0 C 69 % 1004,8 hPa 0,0 l/m 0 min 0 min 123 W/m 74,0 km/h (8 Bft) 95,74 %
16.02.2020 11:22 16,0 C 15,6 C 15,0 C 69 % 1004,8 hPa 0,0 l/m 0 min 0 min 114 W/m 41,8 km/h (6 Bft) 95,74 %
16.02.2020 11:24 16,0 C 15,6 C 15,0 C 69 % 1004,8 hPa 0,0 l/m 0 min 0 min 125 W/m 51,5 km/h (7 Bft) 97,87 %
16.02.2020 11:26 16,1 C 15,6 C 15,0 C 68 % 1004,7 hPa 0,0 l/m 0 min 0 min 124 W/m 64,4 km/h (8 Bft) 97,83 %
16.02.2020 11:28 16,1 C 15,6 C 14,4 C 69 % 1004,9 hPa 0,0 l/m 0 min 0 min 108 W/m 48,3 km/h (6 Bft) 100,00 %
16.02.2020 11:30 16,1 C 15,6 C 15,0 C 69 % 1004,9 hPa 0,0 l/m 0 min 0 min 121 W/m 48,3 km/h (6 Bft) 100,00 %
16.02.2020 11:32 16,1 C 15,6 C 14,4 C 69 % 1004,9 hPa 0,0 l/m 0 min 0 min 103 W/m 64,4 km/h (8 Bft) 100,00 %
16.02.2020 11:34 16,1 C 15,6 C 14,4 C 69 % 1004,9 hPa 0,0 l/m 0 min 0 min 74 W/m 48,3 km/h (6 Bft) 97,87 %
16.02.2020 11:36 16,1 C 15,6 C 14,4 C 69 % 1004,8 hPa 0,0 l/m 0 min 0 min 74 W/m 57,9 km/h (7 Bft) 100,00 %
16.02.2020 11:38 16,1 C 15,6 C 14,4 C 69 % 1004,7 hPa 0,0 l/m 0 min 0 min 81 W/m 35,4 km/h (5 Bft) 100,00 %
16.02.2020 11:40 16,1 C 15,6 C 14,4 C 69 % 1004,8 hPa 0,0 l/m 0 min 0 min 84 W/m 32,2 km/h (5 Bft) 100,00 %
16.02.2020 11:42 16,1 C 15,6 C 14,4 C 69 % 1004,9 hPa 0,0 l/m 0 min 0 min 82 W/m 35,4 km/h (5 Bft) 100,00 %
16.02.2020 11:44 16,1 C 15,6 C 14,4 C 69 % 1005,0 hPa 0,0 l/m 0 min 0 min 67 W/m 35,4 km/h (5 Bft) 97,87 %
16.02.2020 11:46 16,1 C 15,6 C 14,4 C 69 % 1004,9 hPa 0,0 l/m 0 min 0 min 68 W/m 45,1 km/h (6 Bft) 100,00 %
16.02.2020 11:48 16,1 C 15,6 C 14,4 C 69 % 1004,8 hPa 0,0 l/m 0 min 0 min 55 W/m 48,3 km/h (6 Bft) 97,83 %
16.02.2020 11:50 16,1 C 15,6 C 14,4 C 68 % 1004,7 hPa 0,0 l/m 0 min 0 min 50 W/m 67,6 km/h (8 Bft) 100,00 %
16.02.2020 11:52 16,1 C 15,6 C 14,4 C 68 % 1004,7 hPa 0,0 l/m 0 min 0 min 46 W/m 61,2 km/h (7 Bft) 100,00 %
16.02.2020 11:54 16,1 C 15,6 C 14,4 C 69 % 1004,6 hPa 0,0 l/m 0 min 0 min 46 W/m 35,4 km/h (5 Bft) 100,00 %
16.02.2020 11:56 16,1 C 15,6 C 14,4 C 69 % 1004,7 hPa 0,0 l/m 0 min 0 min 39 W/m 38,6 km/h (5 Bft) 100,00 %
16.02.2020 11:58 16,1 C 15,6 C 14,4 C 69 % 1004,6 hPa 0,0 l/m 0 min 0 min 36 W/m 48,3 km/h (6 Bft) 100,00 %
16.02.2020 12:00 16,1 C 15,6 C 14,4 C 68 % 1004,5 hPa 0,0 l/m 0 min 0 min 38 W/m 48,3 km/h (6 Bft) 100,00 %
16.02.2020 12:02 16,1 C 15,6 C 14,4 C 68 % 1004,5 hPa 0,0 l/m 0 min 0 min 40 W/m 51,5 km/h (7 Bft) 97,87 %
16.02.2020 12:04 16,1 C 15,6 C 14,4 C 68 % 1004,5 hPa 0,0 l/m 0 min 0 min 60 W/m 38,6 km/h (5 Bft) 100,00 %
16.02.2020 12:06 16,1 C 15,6 C 14,4 C 69 % 1004,6 hPa 0,0 l/m 0 min 0 min 62 W/m 45,1 km/h (6 Bft) 100,00 %
16.02.2020 12:08 16,1 C 15,6 C 14,4 C 69 % 1004,6 hPa 0,0 l/m 0 min 0 min 54 W/m 57,9 km/h (7 Bft) 100,00 %
16.02.2020 12:10 16,1 C 15,6 C 14,4 C 69 % 1004,3 hPa 0,0 l/m 0 min 0 min 48 W/m 61,2 km/h (7 Bft) 100,00 %
16.02.2020 12:12 16,1 C 15,6 C 14,4 C 69 % 1004,5 hPa 0,0 l/m 0 min 0 min 43 W/m 57,9 km/h (7 Bft) 97,83 %
16.02.2020 12:14 16,1 C 15,6 C 14,4 C 69 % 1004,5 hPa 0,0 l/m 0 min 0 min 35 W/m 51,5 km/h (7 Bft) 97,87 %
16.02.2020 12:16 16,1 C 15,6 C 14,4 C 69 % 1004,7 hPa 0,0 l/m 0 min 0 min 33 W/m 41,8 km/h (6 Bft) 95,74 %
16.02.2020 12:18 16,1 C 15,6 C 14,4 C 69 % 1004,6 hPa 0,0 l/m 0 min 0 min 40 W/m 38,6 km/h (5 Bft) 95,74 %
16.02.2020 12:20 16,1 C 15,6 C 14,4 C 69 % 1004,4 hPa 0,0 l/m 0 min 0 min 48 W/m 45,1 km/h (6 Bft) 97,87 %
16.02.2020 12:22 16,1 C 15,0 C 14,4 C 69 % 1004,4 hPa 0,0 l/m 0 min 0 min 42 W/m 38,6 km/h (5 Bft) 97,87 %
16.02.2020 12:24 16,0 C 15,0 C 14,4 C 69 % 1004,3 hPa 0,0 l/m 0 min 0 min 38 W/m 38,6 km/h (5 Bft) 97,83 %
16.02.2020 12:26 16,0 C 15,0 C 14,4 C 69 % 1004,4 hPa 0,0 l/m 0 min 0 min 32 W/m 35,4 km/h (5 Bft) 97,87 %
16.02.2020 12:28 16,0 C 15,0 C 14,4 C 69 % 1004,2 hPa 0,0 l/m 0 min 0 min 36 W/m 64,4 km/h (8 Bft) 97,87 %
16.02.2020 12:30 16,0 C 15,0 C 14,4 C 69 % 1004,4 hPa 0,0 l/m 0 min 0 min 42 W/m 48,3 km/h (6 Bft) 97,87 %
16.02.2020 12:32 16,0 C 15,0 C 14,4 C 70 % 1004,3 hPa 0,0 l/m 0 min 0 min 40 W/m 22,5 km/h (4 Bft) 95,74 %
16.02.2020 12:34 15,9 C 15,0 C 14,4 C 70 % 1004,3 hPa 0,0 l/m 0 min 0 min 37 W/m 57,9 km/h (7 Bft) 97,87 %
16.02.2020 12:36 15,9 C 15,0 C 14,4 C 70 % 1004,3 hPa 0,0 l/m 0 min 0 min 38 W/m 45,1 km/h (6 Bft) 97,83 %
16.02.2020 12:38 15,9 C 15,0 C 14,4 C 70 % 1004,1 hPa 0,0 l/m 0 min 0 min 43 W/m 54,7 km/h (7 Bft) 97,87 %
16.02.2020 12:40 15,9 C 15,0 C 14,4 C 70 % 1004,2 hPa 0,0 l/m 0 min 0 min 54 W/m 41,8 km/h (6 Bft) 97,87 %
16.02.2020 12:42 15,9 C 15,0 C 14,4 C 70 % 1004,1 hPa 0,0 l/m 0 min 0 min 65 W/m 61,2 km/h (7 Bft) 97,87 %
16.02.2020 12:44 15,9 C 15,6 C 14,4 C 70 % 1004,4 hPa 0,0 l/m 0 min 0 min 71 W/m 51,5 km/h (7 Bft) 97,87 %
16.02.2020 12:46 15,9 C 15,6 C 14,4 C 70 % 1004,0 hPa 0,0 l/m 0 min 0 min 68 W/m 51,5 km/h (7 Bft) 95,74 %
16.02.2020 12:48 15,9 C 15,6 C 14,4 C 70 % 1004,0 hPa 0,0 l/m 0 min 0 min 63 W/m 38,6 km/h (5 Bft) 97,83 %
16.02.2020 12:50 15,9 C 15,0 C 14,4 C 70 % 1003,8 hPa 0,0 l/m 0 min 0 min 62 W/m 41,8 km/h (6 Bft) 95,74 %
16.02.2020 12:52 15,9 C 15,6 C 14,4 C 70 % 1003,8 hPa 0,0 l/m 0 min 0 min 64 W/m 54,7 km/h (7 Bft) 97,87 %
16.02.2020 12:54 15,9 C 15,6 C 14,4 C 70 % 1003,8 hPa 0,0 l/m 0 min 0 min 78 W/m 25,7 km/h (4 Bft) 97,87 %
16.02.2020 12:56 15,9 C 15,6 C 14,4 C 70 % 1003,7 hPa 0,0 l/m 0 min 0 min 92 W/m 29,0 km/h (5 Bft) 97,87 %
16.02.2020 12:58 15,9 C 15,6 C 15,0 C 71 % 1003,7 hPa 0,0 l/m 0 min 0 min 95 W/m 57,9 km/h (7 Bft) 100,00 %
16.02.2020 13:00 15,9 C 15,6 C 15,0 C 71 % 1003,6 hPa 0,0 l/m 0 min 0 min 84 W/m 38,6 km/h (5 Bft) 97,83 %
16.02.2020 13:02 16,0 C 15,6 C 15,0 C 71 % 1003,6 hPa 0,0 l/m 0 min 0 min 133 W/m 41,8 km/h (6 Bft) 97,87 %
16.02.2020 13:04 16,0 C 16,1 C 15,0 C 71 % 1003,5 hPa 0,0 l/m 2 min 0 min 222 W/m 45,1 km/h (6 Bft) 100,00 %
16.02.2020 13:06 16,1 C 16,7 C 16,1 C 71 % 1003,4 hPa 0,0 l/m 2 min 0 min 318 W/m 29,0 km/h (5 Bft) 100,00 %
16.02.2020 13:08 16,1 C 16,7 C 16,1 C 71 % 1003,3 hPa 0,0 l/m 2 min 0 min 247 W/m 35,4 km/h (5 Bft) 100,00 %
16.02.2020 13:10 16,2 C 17,2 C 16,7 C 71 % 1003,3 hPa 0,0 l/m 2 min 0 min 272 W/m 67,6 km/h (8 Bft) 100,00 %
16.02.2020 13:12 16,3 C 17,8 C 16,7 C 71 % 1003,3 hPa 0,0 l/m 2 min 0 min 382 W/m 48,3 km/h (6 Bft) 100,00 %
16.02.2020 13:14 16,4 C 17,8 C 16,7 C 71 % 1003,1 hPa 0,0 l/m 2 min 0 min 458 W/m 38,6 km/h (5 Bft) 100,00 %
16.02.2020 13:16 16,5 C 17,8 C 16,7 C 70 % 1003,1 hPa 0,0 l/m 2 min 0 min 466 W/m 48,3 km/h (6 Bft) 100,00 %
16.02.2020 13:18 16,6 C 17,8 C 16,7 C 70 % 1003,0 hPa 0,0 l/m 2 min 0 min 466 W/m 41,8 km/h (6 Bft) 97,87 %
16.02.2020 13:20 16,7 C 17,2 C 16,7 C 70 % 1003,0 hPa 0,0 l/m 2 min 0 min 425 W/m 35,4 km/h (5 Bft) 100,00 %
16.02.2020 13:22 16,7 C 17,2 C 16,1 C 70 % 1003,1 hPa 0,0 l/m 2 min 0 min 249 W/m 38,6 km/h (5 Bft) 97,83 %
16.02.2020 13:24 16,8 C 17,2 C 16,1 C 70 % 1003,0 hPa 0,0 l/m 2 min 0 min 265 W/m 48,3 km/h (6 Bft) 100,00 %
16.02.2020 13:26 16,8 C 17,2 C 16,1 C 69 % 1002,9 hPa 0,0 l/m 2 min 0 min 272 W/m 35,4 km/h (5 Bft) 100,00 %
16.02.2020 13:28 16,8 C 16,7 C 16,1 C 69 % 1002,8 hPa 0,0 l/m 0 min 0 min 191 W/m 48,3 km/h (6 Bft) 95,74 %
16.02.2020 13:30 16,8 C 16,7 C 15,6 C 70 % 1002,9 hPa 0,0 l/m 0 min 0 min 161 W/m 29,0 km/h (5 Bft) 100,00 %
16.02.2020 13:32 16,8 C 16,7 C 15,6 C 69 % 1002,8 hPa 0,0 l/m 0 min 0 min 198 W/m 57,9 km/h (7 Bft) 100,00 %
16.02.2020 13:34 16,8 C 16,1 C 15,6 C 69 % 1002,7 hPa 0,0 l/m 0 min 0 min 139 W/m 45,1 km/h (6 Bft) 100,00 %
16.02.2020 13:36 16,8 C 16,1 C 15,6 C 70 % 1002,7 hPa 0,0 l/m 0 min 0 min 149 W/m 51,5 km/h (7 Bft) 97,87 %
16.02.2020 13:38 16,8 C 16,7 C 15,6 C 70 % 1003,1 hPa 0,0 l/m 0 min 0 min 168 W/m 38,6 km/h (5 Bft) 95,74 %
16.02.2020 13:40 16,8 C 16,1 C 15,6 C 70 % 1002,9 hPa 0,0 l/m 0 min 0 min 140 W/m 54,7 km/h (7 Bft) 97,87 %
16.02.2020 13:42 16,7 C 16,1 C 15,6 C 69 % 1002,8 hPa 0,0 l/m 0 min 0 min 126 W/m 51,5 km/h (7 Bft) 95,74 %
16.02.2020 13:44 16,7 C 16,1 C 15,6 C 70 % 1002,8 hPa 0,0 l/m 0 min 0 min 164 W/m 48,3 km/h (6 Bft) 97,87 %
16.02.2020 13:46 16,7 C 16,1 C 15,6 C 70 % 1002,7 hPa 0,0 l/m 0 min 0 min 155 W/m 38,6 km/h (5 Bft) 97,96 %
16.02.2020 13:48 16,7 C 16,1 C 15,6 C 70 % 1002,6 hPa 0,0 l/m 0 min 0 min 128 W/m 45,1 km/h (6 Bft) 91,49 %
16.02.2020 13:50 16,7 C 16,1 C 15,6 C 70 % 1002,6 hPa 0,0 l/m 0 min 0 min 125 W/m 45,1 km/h (6 Bft) 95,74 %
16.02.2020 13:52 16,7 C 16,1 C 15,6 C 70 % 1002,7 hPa 0,0 l/m 0 min 0 min 130 W/m 38,6 km/h (5 Bft) 95,65 %
16.02.2020 13:54 16,7 C 16,7 C 15,6 C 70 % 1002,7 hPa 0,0 l/m 0 min 0 min 186 W/m 57,9 km/h (7 Bft) 95,74 %
16.02.2020 13:56 16,7 C 16,7 C 15,6 C 70 % 1002,7 hPa 0,0 l/m 0 min 0 min 131 W/m 57,9 km/h (7 Bft) 95,74 %
16.02.2020 13:58 16,7 C 16,1 C 15,6 C 70 % 1002,7 hPa 0,0 l/m 0 min 0 min 85 W/m 57,9 km/h (7 Bft) 95,74 %
16.02.2020 14:00 16,7 C 16,1 C 15,6 C 71 % 1002,8 hPa 0,0 l/m 0 min 0 min 84 W/m 29,0 km/h (5 Bft) 95,74 %
16.02.2020 14:02 16,7 C 16,1 C 15,0 C 70 % 1002,7 hPa 0,0 l/m 0 min 0 min 67 W/m 51,5 km/h (7 Bft) 95,74 %
16.02.2020 14:04 16,7 C 16,1 C 15,0 C 71 % 1002,8 hPa 0,0 l/m 0 min 0 min 63 W/m 45,1 km/h (6 Bft) 95,65 %
16.02.2020 14:06 16,6 C 16,1 C 15,0 C 71 % 1002,7 hPa 0,0 l/m 0 min 0 min 77 W/m 80,5 km/h (9 Bft) 93,62 %
16.02.2020 14:08 16,6 C 16,1 C 15,0 C 71 % 1002,9 hPa 0,0 l/m 0 min 0 min 75 W/m 48,3 km/h (6 Bft) 95,74 %
16.02.2020 14:10 16,6 C 16,1 C 15,0 C 71 % 1002,8 hPa 0,0 l/m 0 min 0 min 51 W/m 29,0 km/h (5 Bft) 95,74 %
16.02.2020 14:12 16,6 C 16,1 C 15,0 C 71 % 1002,7 hPa 0,0 l/m 0 min 0 min 69 W/m 41,8 km/h (6 Bft) 95,74 %
16.02.2020 14:14 16,6 C 15,6 C 15,0 C 71 % 1002,7 hPa 0,0 l/m 0 min 0 min 68 W/m 41,8 km/h (6 Bft) 95,74 %
16.02.2020 14:16 16,6 C 15,6 C 15,0 C 71 % 1002,7 hPa 0,0 l/m 0 min 0 min 42 W/m 61,2 km/h (7 Bft) 95,65 %
16.02.2020 14:18 16,6 C 15,6 C 15,0 C 72 % 1002,5 hPa 0,0 l/m 0 min 0 min 49 W/m 48,3 km/h (6 Bft) 95,74 %
16.02.2020 14:20 16,6 C 15,6 C 15,0 C 72 % 1002,5 hPa 0,0 l/m 0 min 0 min 62 W/m 32,2 km/h (5 Bft) 95,74 %
16.02.2020 14:22 16,5 C 15,6 C 15,0 C 72 % 1002,3 hPa 0,0 l/m 0 min 0 min 71 W/m 38,6 km/h (5 Bft) 95,74 %
16.02.2020 14:24 16,6 C 16,1 C 15,0 C 72 % 1002,3 hPa 0,0 l/m 0 min 0 min 82 W/m 57,9 km/h (7 Bft) 95,74 %
16.02.2020 14:26 16,6 C 16,1 C 15,0 C 72 % 1002,4 hPa 0,0 l/m 0 min 0 min 75 W/m 45,1 km/h (6 Bft) 95,74 %
16.02.2020 14:28 16,6 C 16,1 C 15,0 C 72 % 1002,5 hPa 0,0 l/m 0 min 0 min 62 W/m 32,2 km/h (5 Bft) 95,65 %
16.02.2020 14:30 16,6 C 16,1 C 15,0 C 72 % 1002,4 hPa 0,0 l/m 0 min 0 min 57 W/m 51,5 km/h (7 Bft) 95,74 %
16.02.2020 14:32 16,6 C 16,1 C 15,0 C 72 % 1002,3 hPa 0,0 l/m 0 min 0 min 68 W/m 41,8 km/h (6 Bft) 97,87 %
16.02.2020 14:34 16,6 C 16,1 C 15,0 C 72 % 1002,4 hPa 0,0 l/m 0 min 0 min 69 W/m 51,5 km/h (7 Bft) 95,74 %
16.02.2020 14:36 16,6 C 16,1 C 15,0 C 72 % 1002,3 hPa 0,0 l/m 0 min 0 min 60 W/m 64,4 km/h (8 Bft) 97,87 %
16.02.2020 14:38 16,6 C 16,1 C 15,0 C 72 % 1002,4 hPa 0,0 l/m 0 min 0 min 57 W/m 48,3 km/h (6 Bft) 97,83 %
16.02.2020 14:40 16,6 C 16,1 C 15,0 C 72 % 1002,2 hPa 0,0 l/m 0 min 0 min 58 W/m 41,8 km/h (6 Bft) 97,87 %
16.02.2020 14:42 16,6 C 16,1 C 15,0 C 72 % 1002,2 hPa 0,0 l/m 0 min 0 min 45 W/m 45,1 km/h (6 Bft) 100,00 %
16.02.2020 14:44 16,6 C 16,1 C 15,0 C 72 % 1002,2 hPa 0,0 l/m 0 min 0 min 43 W/m 54,7 km/h (7 Bft) 100,00 %
16.02.2020 14:46 16,6 C 16,1 C 15,0 C 72 % 1002,1 hPa 0,0 l/m 0 min 0 min 52 W/m 48,3 km/h (6 Bft) 100,00 %
16.02.2020 14:48 16,6 C 16,1 C 15,0 C 72 % 1002,2 hPa 0,0 l/m 0 min 0 min 55 W/m 61,2 km/h (7 Bft) 100,00 %
16.02.2020 14:50 16,6 C 16,1 C 15,0 C 72 % 1002,0 hPa 0,0 l/m 0 min 0 min 62 W/m 45,1 km/h (6 Bft) 95,74 %
16.02.2020 14:52 16,6 C 16,1 C 15,0 C 72 % 1002,0 hPa 0,0 l/m 0 min 0 min 56 W/m 61,2 km/h (7 Bft) 97,83 %
16.02.2020 14:54 16,6 C 16,1 C 15,0 C 72 % 1002,1 hPa 0,0 l/m 0 min 0 min 55 W/m 45,1 km/h (6 Bft) 97,87 %
16.02.2020 14:56 16,6 C 16,1 C 15,0 C 72 % 1002,0 hPa 0,0 l/m 0 min 0 min 59 W/m 32,2 km/h (5 Bft) 95,74 %
16.02.2020 14:58 16,6 C 16,1 C 15,0 C 72 % 1002,0 hPa 0,0 l/m 0 min 0 min 75 W/m 45,1 km/h (6 Bft) 97,87 %
16.02.2020 15:00 16,6 C 16,1 C 15,0 C 72 % 1001,7 hPa 0,0 l/m 0 min 0 min 69 W/m 48,3 km/h (6 Bft) 97,87 %
16.02.2020 15:02 16,6 C 16,1 C 15,0 C 72 % 1001,7 hPa 0,0 l/m 0 min 0 min 58 W/m 35,4 km/h (5 Bft) 97,83 %
16.02.2020 15:04 16,6 C 16,1 C 15,0 C 72 % 1001,7 hPa 0,0 l/m 0 min 0 min 68 W/m 57,9 km/h (7 Bft) 97,87 %
16.02.2020 15:06 16,7 C 16,1 C 15,0 C 72 % 1001,5 hPa 0,0 l/m 0 min 0 min 57 W/m 61,2 km/h (7 Bft) 97,87 %
16.02.2020 15:08 16,7 C 16,1 C 15,6 C 72 % 1001,7 hPa 0,0 l/m 0 min 0 min 65 W/m 67,6 km/h (8 Bft) 95,74 %
16.02.2020 15:10 16,7 C 16,1 C 15,6 C 72 % 1001,5 hPa 0,0 l/m 0 min 0 min 78 W/m 41,8 km/h (6 Bft) 95,74 %
16.02.2020 15:12 16,7 C 16,1 C 15,6 C 72 % 1001,5 hPa 0,0 l/m 0 min 0 min 133 W/m 54,7 km/h (7 Bft) 95,74 %
16.02.2020 15:14 16,7 C 16,7 C 15,6 C 72 % 1001,4 hPa 0,0 l/m 0 min 0 min 129 W/m 64,4 km/h (8 Bft) 97,83 %
16.02.2020 15:16 16,7 C 16,7 C 15,6 C 72 % 1001,4 hPa 0,0 l/m 0 min 0 min 124 W/m 54,7 km/h (7 Bft) 97,87 %
16.02.2020 15:18 16,7 C 16,7 C 15,6 C 72 % 1001,3 hPa 0,0 l/m 0 min 0 min 116 W/m 41,8 km/h (6 Bft) 97,87 %
16.02.2020 15:20 16,8 C 16,7 C 15,6 C 72 % 1001,4 hPa 0,0 l/m 0 min 0 min 108 W/m 38,6 km/h (5 Bft) 97,87 %
16.02.2020 15:22 16,8 C 16,7 C 15,6 C 72 % 1001,2 hPa 0,0 l/m 0 min 0 min 133 W/m 48,3 km/h (6 Bft) 95,74 %
16.02.2020 15:24 16,8 C 16,7 C 15,6 C 72 % 1001,2 hPa 0,0 l/m 0 min 0 min 117 W/m 25,7 km/h (4 Bft) 95,74 %
16.02.2020 15:26 16,8 C 16,7 C 15,6 C 72 % 1001,2 hPa 0,0 l/m 0 min 0 min 106 W/m 54,7 km/h (7 Bft) 95,65 %
16.02.2020 15:28 16,9 C 16,7 C 16,1 C 72 % 1001,2 hPa 0,0 l/m 2 min 0 min 161 W/m 41,8 km/h (6 Bft) 97,87 %
16.02.2020 15:30 16,9 C 16,7 C 16,1 C 72 % 1001,2 hPa 0,0 l/m 0 min 0 min 127 W/m 41,8 km/h (6 Bft) 97,87 %
16.02.2020 15:32 16,9 C 16,7 C 16,1 C 72 % 1001,3 hPa 0,0 l/m 0 min 0 min 146 W/m 45,1 km/h (6 Bft) 100,00 %
16.02.2020 15:34 17,0 C 16,7 C 16,1 C 72 % 1001,3 hPa 0,0 l/m 0 min 0 min 140 W/m 32,2 km/h (5 Bft) 97,87 %
16.02.2020 15:36 17,1 C 16,7 C 16,1 C 72 % 1001,2 hPa 0,0 l/m 0 min 0 min 127 W/m 35,4 km/h (5 Bft) 100,00 %
16.02.2020 15:38 17,1 C 16,7 C 16,1 C 72 % 1001,1 hPa 0,0 l/m 0 min 0 min 122 W/m 54,7 km/h (7 Bft) 100,00 %
16.02.2020 15:40 17,1 C 17,2 C 16,1 C 72 % 1001,2 hPa 0,0 l/m 0 min 0 min 131 W/m 45,1 km/h (6 Bft) 100,00 %
16.02.2020 15:42 17,1 C 16,7 C 16,1 C 72 % 1001,2 hPa 0,0 l/m 0 min 0 min 131 W/m 38,6 km/h (5 Bft) 100,00 %
16.02.2020 15:44 17,2 C 16,7 C 16,1 C 71 % 1001,0 hPa 0,0 l/m 0 min 0 min 109 W/m 45,1 km/h (6 Bft) 100,00 %
16.02.2020 15:46 17,2 C 16,7 C 16,1 C 71 % 1001,1 hPa 0,0 l/m 0 min 0 min 94 W/m 64,4 km/h (8 Bft) 100,00 %
16.02.2020 15:48 17,2 C 16,7 C 16,1 C 71 % 1001,2 hPa 0,0 l/m 0 min 0 min 118 W/m 57,9 km/h (7 Bft) 97,87 %
16.02.2020 15:50 17,3 C 16,7 C 16,1 C 71 % 1001,2 hPa 0,0 l/m 0 min 0 min 101 W/m 38,6 km/h (5 Bft) 100,00 %
16.02.2020 15:52 17,3 C 16,7 C 16,1 C 71 % 1001,1 hPa 0,0 l/m 0 min 0 min 84 W/m 45,1 km/h (6 Bft) 100,00 %
16.02.2020 15:54 17,3 C 16,7 C 16,1 C 71 % 1001,2 hPa 0,0 l/m 0 min 0 min 93 W/m 80,5 km/h (9 Bft) 100,00 %
16.02.2020 15:56 17,4 C 16,7 C 16,1 C 71 % 1001,0 hPa 0,0 l/m 0 min 0 min 78 W/m 35,4 km/h (5 Bft) 93,62 %
16.02.2020 15:58 17,4 C 16,7 C 16,1 C 71 % 1001,1 hPa 0,0 l/m 0 min 0 min 67 W/m 51,5 km/h (7 Bft) 100,00 %
16.02.2020 16:00 17,4 C 16,7 C 16,1 C 71 % 1001,0 hPa 0,0 l/m 0 min 0 min 57 W/m 51,5 km/h (7 Bft) 100,00 %
16.02.2020 16:02 17,4 C 16,7 C 16,1 C 70 % 1001,2 hPa 0,0 l/m 0 min 0 min 60 W/m 57,9 km/h (7 Bft) 100,00 %
16.02.2020 16:04 17,4 C 16,7 C 16,1 C 70 % 1001,3 hPa 0,0 l/m 0 min 0 min 51 W/m 57,9 km/h (7 Bft) 100,00 %
16.02.2020 16:06 17,4 C 16,7 C 16,1 C 70 % 1001,2 hPa 0,0 l/m 0 min 0 min 57 W/m 38,6 km/h (5 Bft) 97,87 %
16.02.2020 16:08 17,4 C 16,7 C 16,1 C 70 % 1001,2 hPa 0,0 l/m 0 min 0 min 77 W/m 48,3 km/h (6 Bft) 100,00 %
16.02.2020 16:10 17,4 C 16,7 C 16,1 C 70 % 1001,0 hPa 0,0 l/m 0 min 0 min 80 W/m 64,4 km/h (8 Bft) 100,00 %
16.02.2020 16:12 17,4 C 16,7 C 16,1 C 70 % 1001,2 hPa 0,0 l/m 0 min 0 min 80 W/m 48,3 km/h (6 Bft) 100,00 %
16.02.2020 16:14 17,5 C 16,7 C 16,1 C 70 % 1001,1 hPa 0,0 l/m 0 min 0 min 60 W/m 61,2 km/h (7 Bft) 100,00 %
16.02.2020 16:16 17,5 C 16,7 C 16,1 C 70 % 1001,1 hPa 0,0 l/m 0 min 0 min 44 W/m 54,7 km/h (7 Bft) 100,00 %
16.02.2020 16:18 17,5 C 16,7 C 16,1 C 69 % 1001,0 hPa 0,0 l/m 0 min 0 min 38 W/m 57,9 km/h (7 Bft) 100,00 %
16.02.2020 16:20 17,5 C 16,7 C 16,1 C 69 % 1001,2 hPa 0,0 l/m 0 min 0 min 36 W/m 41,8 km/h (6 Bft) 100,00 %
16.02.2020 16:22 17,5 C 16,7 C 16,1 C 70 % 1001,0 hPa 0,0 l/m 0 min 0 min 30 W/m 45,1 km/h (6 Bft) 100,00 %
16.02.2020 16:24 17,5 C 16,7 C 16,1 C 70 % 1001,1 hPa 0,0 l/m 0 min 0 min 31 W/m 51,5 km/h (7 Bft) 97,83 %
16.02.2020 16:26 17,5 C 16,7 C 16,1 C 69 % 1000,8 hPa 0,0 l/m 0 min 0 min 34 W/m 54,7 km/h (7 Bft) 100,00 %
16.02.2020 16:28 17,5 C 16,7 C 16,1 C 69 % 1001,3 hPa 0,0 l/m 0 min 0 min 39 W/m 45,1 km/h (6 Bft) 97,87 %
16.02.2020 16:30 17,5 C 16,7 C 16,1 C 69 % 1001,0 hPa 0,0 l/m 0 min 0 min 55 W/m 35,4 km/h (5 Bft) 100,00 %
16.02.2020 16:32 17,5 C 16,7 C 16,1 C 69 % 1000,9 hPa 0,0 l/m 0 min 0 min 49 W/m 29,0 km/h (5 Bft) 97,87 %
16.02.2020 16:34 17,5 C 16,7 C 16,1 C 69 % 1000,9 hPa 0,0 l/m 0 min 0 min 68 W/m 38,6 km/h (5 Bft) 100,00 %
16.02.2020 16:36 17,5 C 16,7 C 16,1 C 69 % 1000,8 hPa 0,0 l/m 0 min 0 min 71 W/m 35,4 km/h (5 Bft) 100,00 %
16.02.2020 16:38 17,5 C 16,7 C 16,1 C 69 % 1000,8 hPa 0,0 l/m 0 min 0 min 74 W/m 38,6 km/h (5 Bft) 97,87 %
16.02.2020 16:40 17,5 C 17,2 C 16,1 C 68 % 1000,8 hPa 0,0 l/m 0 min 0 min 76 W/m 41,8 km/h (6 Bft) 97,87 %
16.02.2020 16:42 17,6 C 17,2 C 16,1 C 68 % 1000,6 hPa 0,0 l/m 0 min 0 min 69 W/m 57,9 km/h (7 Bft) 97,87 %
16.02.2020 16:44 17,6 C 17,2 C 16,1 C 68 % 1000,7 hPa 0,0 l/m 0 min 0 min 62 W/m 32,2 km/h (5 Bft) 97,87 %
16.02.2020 16:46 17,6 C 17,2 C 16,1 C 68 % 1000,6 hPa 0,0 l/m 0 min 0 min 61 W/m 57,9 km/h (7 Bft) 97,87 %
16.02.2020 16:48 17,6 C 17,2 C 16,1 C 67 % 1000,7 hPa 0,0 l/m 0 min 0 min 50 W/m 48,3 km/h (6 Bft) 95,65 %
16.02.2020 16:50 17,6 C 17,2 C 16,1 C 67 % 1000,7 hPa 0,0 l/m 0 min 0 min 41 W/m 64,4 km/h (8 Bft) 97,87 %
16.02.2020 16:52 17,7 C 17,2 C 16,1 C 67 % 1000,7 hPa 0,0 l/m 0 min 0 min 38 W/m 48,3 km/h (6 Bft) 95,74 %
16.02.2020 16:54 17,7 C 17,2 C 16,1 C 67 % 1000,6 hPa 0,0 l/m 0 min 0 min 37 W/m 45,1 km/h (6 Bft) 97,87 %
16.02.2020 16:56 17,7 C 17,2 C 16,1 C 67 % 1000,6 hPa 0,0 l/m 0 min 0 min 34 W/m 54,7 km/h (7 Bft) 97,87 %
16.02.2020 16:58 17,7 C 17,2 C 16,1 C 66 % 1000,5 hPa 0,0 l/m 0 min 0 min 32 W/m 54,7 km/h (7 Bft) 97,83 %
16.02.2020 17:00 17,7 C 16,7 C 16,1 C 67 % 1000,6 hPa 0,0 l/m 0 min 0 min 34 W/m 29,0 km/h (5 Bft) 95,74 %
16.02.2020 17:02 17,7 C 16,7 C 16,1 C 67 % 1000,6 hPa 0,0 l/m 0 min 0 min 40 W/m 45,1 km/h (6 Bft) 95,74 %
16.02.2020 17:04 17,7 C 16,7 C 16,1 C 67 % 1000,5 hPa 0,0 l/m 0 min 0 min 41 W/m 38,6 km/h (5 Bft) 97,87 %
16.02.2020 17:06 17,7 C 17,2 C 16,1 C 66 % 1000,3 hPa 0,0 l/m 0 min 0 min 42 W/m 57,9 km/h (7 Bft) 95,74 %
16.02.2020 17:08 17,7 C 17,2 C 16,1 C 66 % 1000,4 hPa 0,0 l/m 0 min 0 min 42 W/m 64,4 km/h (8 Bft) 95,74 %
16.02.2020 17:10 17,8 C 17,2 C 16,1 C 66 % 1000,3 hPa 0,0 l/m 0 min 0 min 42 W/m 61,2 km/h (7 Bft) 48,84 %
16.02.2020 17:12 17,8 C 17,2 C 16,7 C 66 % 1000,2 hPa 0,0 l/m 0 min 0 min 40 W/m 64,4 km/h (8 Bft) 95,65 %
16.02.2020 17:14 17,8 C 17,2 C 16,7 C 66 % 1000,2 hPa 0,0 l/m 2 min 0 min 39 W/m 48,3 km/h (6 Bft) 91,49 %
16.02.2020 17:16 17,8 C 17,2 C 16,1 C 66 % 1000,3 hPa 0,0 l/m 0 min 0 min 34 W/m 57,9 km/h (7 Bft) 95,74 %
16.02.2020 17:18 17,8 C 16,7 C 16,1 C 66 % 1000,2 hPa 0,0 l/m 0 min 0 min 29 W/m 45,1 km/h (6 Bft) 97,87 %
16.02.2020 17:20 17,8 C 16,7 C 16,1 C 66 % 1000,1 hPa 0,0 l/m 0 min 0 min 25 W/m 54,7 km/h (7 Bft) 95,74 %
16.02.2020 17:22 17,8 C 17,2 C 16,1 C 66 % 999,9 hPa 0,0 l/m 0 min 0 min 21 W/m 51,5 km/h (7 Bft) 95,65 %
16.02.2020 17:24 17,8 C 16,7 C 16,1 C 66 % 1000,1 hPa 0,0 l/m 0 min 0 min 20 W/m 51,5 km/h (7 Bft) 95,74 %
16.02.2020 17:26 17,8 C 17,2 C 16,1 C 65 % 1000,0 hPa 0,0 l/m 0 min 0 min 16 W/m 77,2 km/h (9 Bft) 93,62 %
16.02.2020 17:28 17,8 C 17,2 C 16,1 C 66 % 1000,0 hPa 0,0 l/m 0 min 0 min 13 W/m 64,4 km/h (8 Bft) 93,62 %
16.02.2020 17:30 17,8 C 16,7 C 16,1 C 66 % 1000,0 hPa 0,0 l/m 0 min 0 min 11 W/m 67,6 km/h (8 Bft) 93,62 %
16.02.2020 17:32 17,8 C 16,7 C 16,1 C 66 % 999,9 hPa 0,0 l/m 0 min 0 min 9 W/m 41,8 km/h (6 Bft) 89,36 %
16.02.2020 17:34 17,8 C 16,7 C 16,1 C 66 % 999,9 hPa 0,0 l/m 0 min 0 min 9 W/m 51,5 km/h (7 Bft) 93,48 %
16.02.2020 17:36 17,8 C 16,7 C 16,1 C 66 % 999,9 hPa 0,0 l/m 0 min 0 min 7 W/m 64,4 km/h (8 Bft) 95,74 %
16.02.2020 17:38 17,8 C 16,7 C 16,1 C 65 % 999,9 hPa 0,0 l/m 0 min 0 min 6 W/m 61,2 km/h (7 Bft) 95,74 %
16.02.2020 17:40 17,8 C 16,7 C 16,1 C 65 % 999,8 hPa 0,0 l/m 0 min 0 min 5 W/m 80,5 km/h (9 Bft) 95,74 %
16.02.2020 17:42 17,8 C 16,7 C 16,1 C 66 % 999,8 hPa 0,0 l/m 0 min 0 min 1 W/m 38,6 km/h (5 Bft) 95,74 %
16.02.2020 17:44 17,8 C 16,7 C 16,1 C 66 % 1000,0 hPa 0,0 l/m 0 min 0 min 0 W/m 45,1 km/h (6 Bft) 93,62 %
16.02.2020 17:46 17,7 C 16,7 C 16,1 C 66 % 999,8 hPa 0,0 l/m 0 min 0 min 0 W/m 45,1 km/h (6 Bft) 95,65 %
16.02.2020 17:48 17,7 C 16,7 C 16,1 C 66 % 999,8 hPa 0,0 l/m 0 min 0 min 0 W/m 61,2 km/h (7 Bft) 95,74 %
16.02.2020 17:50 17,7 C 16,7 C 16,1 C 66 % 999,8 hPa 0,0 l/m 0 min 0 min 0 W/m 41,8 km/h (6 Bft) 95,74 %
16.02.2020 17:52 17,7 C 16,7 C 16,1 C 66 % 999,7 hPa 0,0 l/m 0 min 0 min 0 W/m 54,7 km/h (7 Bft) 93,62 %
16.02.2020 17:54 17,7 C 16,7 C 16,1 C 65 % 999,8 hPa 0,0 l/m 0 min 0 min 0 W/m 70,8 km/h (8 Bft) 95,74 %
16.02.2020 17:56 17,7 C 16,7 C 16,1 C 65 % 999,7 hPa 0,0 l/m 0 min 0 min 0 W/m 61,2 km/h (7 Bft) 95,74 %
16.02.2020 17:58 17,7 C 16,7 C 16,1 C 65 % 999,6 hPa 0,0 l/m 0 min 0 min 0 W/m 45,1 km/h (6 Bft) 93,48 %
16.02.2020 18:00 17,7 C 16,7 C 16,1 C 65 % 999,5 hPa 0,0 l/m 0 min 0 min 0 W/m 54,7 km/h (7 Bft) 95,74 %
16.02.2020 18:02 17,7 C 16,7 C 16,1 C 65 % 999,3 hPa 0,0 l/m 0 min 0 min 0 W/m 67,6 km/h (8 Bft) 93,62 %
16.02.2020 18:04 17,7 C 16,7 C 16,1 C 65 % 999,3 hPa 0,0 l/m 0 min 0 min 0 W/m 83,7 km/h (9 Bft) 97,87 %
16.02.2020 18:08 17,7 C 16,7 C 16,1 C 65 % 999,5 hPa 0,0 l/m 0 min 0 min 0 W/m 83,7 km/h (9 Bft) 96,81 %
16.02.2020 18:10 17,7 C 16,7 C 16,1 C 65 % 999,2 hPa 0,0 l/m 0 min 0 min 0 W/m 61,2 km/h (7 Bft) 97,83 %
16.02.2020 18:12 17,7 C 16,7 C 16,1 C 65 % 999,2 hPa 0,0 l/m 0 min 0 min 0 W/m 74,0 km/h (8 Bft) 100,00 %
16.02.2020 18:14 17,7 C 16,7 C 16,1 C 65 % 999,2 hPa 0,0 l/m 0 min 0 min 0 W/m 45,1 km/h (6 Bft) 100,00 %
16.02.2020 18:16 17,7 C 16,7 C 16,1 C 65 % 999,0 hPa 0,0 l/m 0 min 0 min 0 W/m 70,8 km/h (8 Bft) 100,00 %
16.02.2020 18:18 17,7 C 16,7 C 16,1 C 65 % 999,0 hPa 0,0 l/m 0 min 0 min 0 W/m 54,7 km/h (7 Bft) 100,00 %
16.02.2020 18:20 17,7 C 16,7 C 16,1 C 65 % 999,1 hPa 0,0 l/m 0 min 0 min 0 W/m 64,4 km/h (8 Bft) 100,00 %
16.02.2020 18:22 17,7 C 16,7 C 16,1 C 65 % 998,9 hPa 0,0 l/m 0 min 0 min 0 W/m 54,7 km/h (7 Bft) 100,00 %
16.02.2020 18:24 17,6 C 16,7 C 16,1 C 65 % 999,0 hPa 0,0 l/m 0 min 0 min 0 W/m 61,2 km/h (7 Bft) 100,00 %
16.02.2020 18:26 17,6 C 16,7 C 16,1 C 65 % 999,0 hPa 0,0 l/m 0 min 0 min 0 W/m 57,9 km/h (7 Bft) 100,00 %
16.02.2020 18:28 17,6 C 16,7 C 16,1 C 66 % 998,4 hPa 0,0 l/m 0 min 0 min 0 W/m 54,7 km/h (7 Bft) 100,00 %
16.02.2020 18:30 17,6 C 16,7 C 16,1 C 65 % 998,8 hPa 0,0 l/m 0 min 0 min 0 W/m 61,2 km/h (7 Bft) 97,87 %
16.02.2020 18:32 17,6 C 16,7 C 16,1 C 65 % 998,7 hPa 0,0 l/m 0 min 0 min 0 W/m 70,8 km/h (8 Bft) 100,00 %
16.02.2020 18:34 17,6 C 16,7 C 16,1 C 65 % 998,7 hPa 0,0 l/m 0 min 0 min 0 W/m 51,5 km/h (7 Bft) 100,00 %
16.02.2020 18:36 17,6 C 16,7 C 16,1 C 65 % 998,7 hPa 0,0 l/m 0 min 0 min 0 W/m 54,7 km/h (7 Bft) 97,87 %
16.02.2020 18:38 17,6 C 16,7 C 16,1 C 65 % 998,7 hPa 0,0 l/m 0 min 0 min 0 W/m 70,8 km/h (8 Bft) 95,74 %
16.02.2020 18:40 17,6 C 16,7 C 16,1 C 65 % 998,7 hPa 0,0 l/m 0 min 0 min 0 W/m 64,4 km/h (8 Bft) 100,00 %
16.02.2020 18:42 17,6 C 16,7 C 16,1 C 65 % 998,8 hPa 0,0 l/m 0 min 0 min 0 W/m 70,8 km/h (8 Bft) 97,87 %
16.02.2020 18:44 17,6 C 16,7 C 16,1 C 65 % 998,6 hPa 0,0 l/m 0 min 0 min 0 W/m 57,9 km/h (7 Bft) 97,83 %
16.02.2020 18:46 17,6 C 16,7 C 16,1 C 65 % 998,6 hPa 0,0 l/m 0 min 0 min 0 W/m 57,9 km/h (7 Bft) 100,00 %
16.02.2020 18:48 17,6 C 16,7 C 16,1 C 65 % 998,7 hPa 0,0 l/m 0 min 0 min 0 W/m 77,2 km/h (9 Bft) 100,00 %
16.02.2020 18:50 17,6 C 16,7 C 16,1 C 65 % 998,7 hPa 0,0 l/m 0 min 0 min 0 W/m 57,9 km/h (7 Bft) 100,00 %
16.02.2020 18:52 17,6 C 16,7 C 16,1 C 65 % 998,6 hPa 0,0 l/m 0 min 0 min 0 W/m 61,2 km/h (7 Bft) 97,87 %
16.02.2020 18:54 17,6 C 16,7 C 16,1 C 65 % 998,6 hPa 0,0 l/m 0 min 0 min 0 W/m 67,6 km/h (8 Bft) 100,00 %
16.02.2020 18:56 17,6 C 16,7 C 16,1 C 65 % 998,7 hPa 0,0 l/m 0 min 0 min 0 W/m 67,6 km/h (8 Bft) 100,00 %
16.02.2020 18:58 17,6 C 16,7 C 16,1 C 65 % 998,5 hPa 0,0 l/m 0 min 0 min 0 W/m 70,8 km/h (8 Bft) 100,00 %
16.02.2020 19:00 17,7 C 16,7 C 16,1 C 65 % 998,7 hPa 0,0 l/m 0 min 0 min 0 W/m 61,2 km/h (7 Bft) 100,00 %
16.02.2020 19:02 17,7 C 16,7 C 16,1 C 65 % 998,5 hPa 0,0 l/m 0 min 0 min 0 W/m 51,5 km/h (7 Bft) 100,00 %
16.02.2020 19:04 17,7 C 16,7 C 16,1 C 65 % 998,7 hPa 0,0 l/m 0 min 0 min 0 W/m 48,3 km/h (6 Bft) 100,00 %
16.02.2020 19:06 17,7 C 16,7 C 16,1 C 65 % 998,6 hPa 0,0 l/m 0 min 0 min 0 W/m 64,4 km/h (8 Bft) 100,00 %
16.02.2020 19:08 17,7 C 16,7 C 16,1 C 65 % 998,6 hPa 0,0 l/m 0 min 0 min 0 W/m 70,8 km/h (8 Bft) 100,00 %
16.02.2020 19:10 17,7 C 16,7 C 16,1 C 65 % 998,4 hPa 0,0 l/m 0 min 0 min 0 W/m 74,0 km/h (8 Bft) 100,00 %
16.02.2020 19:12 17,6 C 16,7 C 16,1 C 66 % 998,7 hPa 0,0 l/m 0 min 0 min 0 W/m 67,6 km/h (8 Bft) 100,00 %
16.02.2020 19:14 17,6 C 16,7 C 16,1 C 66 % 998,7 hPa 0,0 l/m 0 min 0 min 0 W/m 57,9 km/h (7 Bft) 100,00 %
16.02.2020 19:16 17,6 C 16,7 C 16,1 C 66 % 998,7 hPa 0,0 l/m 0 min 0 min 0 W/m 67,6 km/h (8 Bft) 100,00 %
16.02.2020 19:18 17,6 C 16,7 C 16,1 C 66 % 998,8 hPa 0,0 l/m 0 min 0 min 0 W/m 45,1 km/h (6 Bft) 100,00 %
16.02.2020 19:20 17,6 C 16,7 C 16,1 C 66 % 998,8 hPa 0,0 l/m 0 min 0 min 0 W/m 67,6 km/h (8 Bft) 97,87 %
16.02.2020 19:22 17,6 C 16,7 C 16,1 C 66 % 999,2 hPa 0,0 l/m 0 min 0 min 0 W/m 61,2 km/h (7 Bft) 95,74 %
16.02.2020 19:24 17,6 C 16,7 C 16,1 C 66 % 999,0 hPa 0,0 l/m 0 min 0 min 0 W/m 57,9 km/h (7 Bft) 100,00 %
16.02.2020 19:26 17,6 C 16,7 C 16,1 C 66 % 998,7 hPa 0,0 l/m 0 min 0 min 0 W/m 74,0 km/h (8 Bft) 100,00 %
16.02.2020 19:28 17,6 C 16,7 C 16,1 C 66 % 999,0 hPa 0,0 l/m 0 min 0 min 0 W/m 77,2 km/h (9 Bft) 97,87 %
16.02.2020 19:30 17,6 C 16,7 C 16,1 C 66 % 999,1 hPa 0,0 l/m 0 min 0 min 0 W/m 61,2 km/h (7 Bft) 100,00 %
16.02.2020 19:32 17,6 C 16,7 C 16,1 C 67 % 999,2 hPa 0,0 l/m 0 min 0 min 0 W/m 41,8 km/h (6 Bft) 97,87 %
16.02.2020 19:34 17,6 C 16,7 C 16,1 C 66 % 999,1 hPa 0,0 l/m 0 min 0 min 0 W/m 80,5 km/h (9 Bft) 100,00 %
16.02.2020 19:36 17,6 C 16,7 C 16,1 C 67 % 999,2 hPa 0,0 l/m 0 min 0 min 0 W/m 67,6 km/h (8 Bft) 97,87 %
16.02.2020 19:38 17,6 C 16,7 C 16,1 C 67 % 999,4 hPa 0,0 l/m 0 min 0 min 0 W/m 61,2 km/h (7 Bft) 95,74 %
16.02.2020 19:40 17,6 C 16,7 C 16,1 C 67 % 999,3 hPa 0,0 l/m 0 min 0 min 0 W/m 45,1 km/h (6 Bft) 100,00 %
16.02.2020 19:42 17,6 C 16,7 C 16,1 C 67 % 999,5 hPa 0,0 l/m 0 min 0 min 0 W/m 77,2 km/h (9 Bft) 100,00 %
16.02.2020 19:44 17,6 C 16,7 C 16,1 C 67 % 999,6 hPa 0,0 l/m 0 min 0 min 0 W/m 83,7 km/h (9 Bft) 100,00 %
16.02.2020 19:46 17,6 C 16,7 C 16,1 C 67 % 1000,0 hPa 0,0 l/m 0 min 0 min 0 W/m 35,4 km/h (5 Bft) 97,87 %
16.02.2020 19:48 17,6 C 16,7 C 15,0 C 67 % 1000,6 hPa 0,0 l/m 0 min 2 min 0 W/m 48,3 km/h (6 Bft) 95,74 %
16.02.2020 19:50 17,4 C 14,4 C 13,9 C 68 % 1002,0 hPa 0,0 l/m 0 min 2 min 0 W/m 54,7 km/h (7 Bft) 97,87 %
16.02.2020 19:52 16,7 C 12,8 C 11,7 C 69 % 1002,2 hPa 0,0 l/m 0 min 2 min 0 W/m 45,1 km/h (6 Bft) 97,87 %
16.02.2020 19:54 15,8 C 10,0 C 10,0 C 73 % 1002,3 hPa 0,4 l/m 0 min 2 min 0 W/m 35,4 km/h (5 Bft) 97,83 %
16.02.2020 19:56 14,8 C 8,9 C 9,4 C 76 % 1002,3 hPa 0,4 l/m 0 min 2 min 0 W/m 54,7 km/h (7 Bft) 95,74 %
16.02.2020 19:58 14,1 C 8,9 C 8,9 C 78 % 1002,3 hPa 0,4 l/m 0 min 2 min 0 W/m 54,7 km/h (7 Bft) 97,87 %
16.02.2020 20:00 13,4 C 8,3 C 8,9 C 81 % 1003,1 hPa 0,8 l/m 0 min 2 min 0 W/m 32,2 km/h (5 Bft) 97,87 %
16.02.2020 20:02 12,8 C 8,3 C 8,9 C 82 % 1003,1 hPa 0,8 l/m 0 min 2 min 0 W/m 48,3 km/h (6 Bft) 95,74 %
16.02.2020 20:04 12,2 C 8,3 C 8,3 C 83 % 1003,0 hPa 0,4 l/m 0 min 2 min 0 W/m 41,8 km/h (6 Bft) 97,87 %
16.02.2020 20:06 11,7 C 7,8 C 8,3 C 85 % 1003,0 hPa 0,0 l/m 0 min 2 min 0 W/m 51,5 km/h (7 Bft) 95,65 %
16.02.2020 20:08 11,2 C 7,8 C 7,8 C 85 % 1003,2 hPa 0,2 l/m 0 min 2 min 0 W/m 41,8 km/h (6 Bft) 97,87 %
16.02.2020 20:10 10,9 C 7,8 C 7,8 C 86 % 1003,5 hPa 0,0 l/m 0 min 2 min 0 W/m 32,2 km/h (5 Bft) 95,74 %
16.02.2020 20:12 10,6 C 7,8 C 7,8 C 87 % 1003,4 hPa 0,2 l/m 0 min 2 min 0 W/m 35,4 km/h (5 Bft) 95,74 %
16.02.2020 20:14 10,3 C 7,8 C 7,8 C 88 % 1003,7 hPa 0,0 l/m 0 min 2 min 0 W/m 29,0 km/h (5 Bft) 95,74 %
16.02.2020 20:16 10,2 C 7,8 C 7,8 C 89 % 1003,6 hPa 0,2 l/m 0 min 2 min 0 W/m 29,0 km/h (5 Bft) 95,65 %
16.02.2020 20:18 9,9 C 7,2 C 7,8 C 89 % 1003,4 hPa 0,2 l/m 0 min 2 min 0 W/m 38,6 km/h (5 Bft) 95,74 %
16.02.2020 20:20 9,8 C 7,2 C 7,8 C 90 % 1003,5 hPa 0,0 l/m 0 min 2 min 0 W/m 25,7 km/h (4 Bft) 93,62 %
16.02.2020 20:22 9,7 C 7,2 C 7,8 C 90 % 1003,6 hPa 0,0 l/m 0 min 2 min 0 W/m 22,5 km/h (4 Bft) 95,74 %
16.02.2020 20:24 9,6 C 7,2 C 7,2 C 91 % 1003,7 hPa 0,0 l/m 0 min 2 min 0 W/m 32,2 km/h (5 Bft) 95,74 %
16.02.2020 20:26 9,4 C 7,2 C 7,2 C 91 % 1003,7 hPa 0,0 l/m 0 min 2 min 0 W/m 25,7 km/h (4 Bft) 95,74 %
16.02.2020 20:28 9,3 C 7,2 C 7,2 C 91 % 1003,8 hPa 0,0 l/m 0 min 2 min 0 W/m 29,0 km/h (5 Bft) 95,65 %
16.02.2020 20:30 9,2 C 7,2 C 7,2 C 92 % 1003,8 hPa 0,0 l/m 0 min 2 min 0 W/m 32,2 km/h (5 Bft) 95,74 %
16.02.2020 20:32 9,2 C 7,2 C 7,2 C 92 % 1003,8 hPa 0,2 l/m 0 min 2 min 0 W/m 22,5 km/h (4 Bft) 95,74 %
16.02.2020 20:34 9,1 C 7,2 C 7,2 C 92 % 1004,0 hPa 0,0 l/m 0 min 2 min 0 W/m 16,1 km/h (3 Bft) 95,74 %
16.02.2020 20:36 9,1 C 7,2 C 7,2 C 92 % 1004,1 hPa 0,0 l/m 0 min 2 min 0 W/m 16,1 km/h (3 Bft) 95,74 %
16.02.2020 20:38 9,0 C 7,2 C 7,2 C 93 % 1004,1 hPa 0,2 l/m 0 min 2 min 0 W/m 22,5 km/h (4 Bft) 91,49 %
16.02.2020 20:40 8,9 C 7,2 C 7,2 C 93 % 1004,1 hPa 0,0 l/m 0 min 2 min 0 W/m 25,7 km/h (4 Bft) 97,83 %
16.02.2020 20:42 8,9 C 7,2 C 7,2 C 93 % 1004,3 hPa 0,0 l/m 0 min 2 min 0 W/m 38,6 km/h (5 Bft) 93,62 %
16.02.2020 20:44 8,8 C 7,2 C 7,2 C 93 % 1004,4 hPa 0,2 l/m 0 min 2 min 0 W/m 25,7 km/h (4 Bft) 95,74 %
16.02.2020 20:46 8,8 C 7,2 C 7,2 C 93 % 1004,4 hPa 0,0 l/m 0 min 2 min 0 W/m 9,7 km/h (2 Bft) 91,49 %
16.02.2020 20:48 8,8 C 7,2 C 7,2 C 94 % 1004,5 hPa 0,0 l/m 0 min 2 min 0 W/m 9,7 km/h (2 Bft) 95,74 %
16.02.2020 20:50 8,7 C 7,2 C 7,2 C 94 % 1004,6 hPa 0,2 l/m 0 min 2 min 0 W/m 19,3 km/h (3 Bft) 95,74 %
16.02.2020 20:52 8,7 C 7,2 C 7,2 C 94 % 1004,7 hPa 0,0 l/m 0 min 2 min 0 W/m 25,7 km/h (4 Bft) 95,65 %
16.02.2020 20:54 8,7 C 7,2 C 7,2 C 94 % 1004,7 hPa 0,0 l/m 0 min 2 min 0 W/m 19,3 km/h (3 Bft) 93,62 %
16.02.2020 20:56 8,7 C 7,2 C 7,2 C 94 % 1004,8 hPa 0,0 l/m 0 min 2 min 0 W/m 12,9 km/h (3 Bft) 93,62 %
16.02.2020 20:58 8,7 C 7,2 C 7,2 C 94 % 1005,0 hPa 0,2 l/m 0 min 2 min 0 W/m 16,1 km/h (3 Bft) 95,74 %
16.02.2020 21:00 8,6 C 7,2 C 7,2 C 94 % 1005,2 hPa 0,0 l/m 0 min 2 min 0 W/m 22,5 km/h (4 Bft) 95,74 %
16.02.2020 21:02 8,6 C 7,2 C 7,2 C 94 % 1005,1 hPa 0,2 l/m 0 min 2 min 0 W/m 16,1 km/h (3 Bft) 93,62 %
16.02.2020 21:04 8,6 C 7,2 C 7,2 C 95 % 1005,1 hPa 0,0 l/m 0 min 2 min 0 W/m 22,5 km/h (4 Bft) 97,83 %
16.02.2020 21:06 8,6 C 7,2 C 7,2 C 95 % 1005,1 hPa 0,0 l/m 0 min 2 min 0 W/m 16,1 km/h (3 Bft) 52,27 %
16.02.2020 21:08 8,6 C 7,2 C 7,2 C 95 % 1005,2 hPa 0,0 l/m 0 min 2 min 0 W/m 22,5 km/h (4 Bft) 97,87 %
16.02.2020 21:10 8,6 C 7,2 C 7,2 C 95 % 1005,5 hPa 0,0 l/m 0 min 2 min 0 W/m 16,1 km/h (3 Bft) 95,74 %
16.02.2020 21:12 8,6 C 7,2 C 7,2 C 95 % 1005,7 hPa 0,0 l/m 0 min 2 min 0 W/m 19,3 km/h (3 Bft) 97,87 %
16.02.2020 21:14 8,6 C 7,2 C 7,2 C 95 % 1005,7 hPa 0,2 l/m 0 min 2 min 0 W/m 19,3 km/h (3 Bft) 95,74 %
16.02.2020 21:16 8,6 C 7,2 C 7,2 C 95 % 1005,7 hPa 0,0 l/m 0 min 2 min 0 W/m 25,7 km/h (4 Bft) 95,65 %
16.02.2020 21:18 8,6 C 7,2 C 7,2 C 95 % 1005,7 hPa 0,2 l/m 0 min 2 min 0 W/m 29,0 km/h (5 Bft) 97,87 %
16.02.2020 21:20 8,6 C 7,2 C 7,2 C 95 % 1005,6 hPa 0,0 l/m 0 min 2 min 0 W/m 22,5 km/h (4 Bft) 97,87 %
16.02.2020 21:22 8,6 C 7,2 C 7,2 C 96 % 1005,8 hPa 0,0 l/m 0 min 2 min 0 W/m 12,9 km/h (3 Bft) 97,87 %
16.02.2020 21:24 8,6 C 7,2 C 7,2 C 96 % 1005,8 hPa 0,0 l/m 0 min 2 min 0 W/m 25,7 km/h (4 Bft) 97,87 %
16.02.2020 21:26 8,6 C 7,2 C 7,2 C 96 % 1005,8 hPa 0,0 l/m 0 min 2 min 0 W/m 25,7 km/h (4 Bft) 97,83 %
16.02.2020 21:28 8,6 C 7,2 C 7,2 C 96 % 1005,8 hPa 0,2 l/m 0 min 2 min 0 W/m 16,1 km/h (3 Bft) 97,87 %
16.02.2020 21:30 8,6 C 7,2 C 7,2 C 96 % 1005,7 hPa 0,0 l/m 0 min 2 min 0 W/m 9,7 km/h (2 Bft) 97,87 %
16.02.2020 21:32 8,6 C 7,2 C 7,2 C 96 % 1005,8 hPa 0,2 l/m 0 min 2 min 0 W/m 12,9 km/h (3 Bft) 95,74 %
16.02.2020 21:34 8,6 C 7,2 C 7,2 C 96 % 1005,8 hPa 0,0 l/m 0 min 2 min 0 W/m 19,3 km/h (3 Bft) 97,87 %
16.02.2020 21:36 8,6 C 7,2 C 7,2 C 96 % 1005,8 hPa 0,0 l/m 0 min 2 min 0 W/m 12,9 km/h (3 Bft) 97,87 %
16.02.2020 21:38 8,6 C 7,2 C 7,2 C 96 % 1005,8 hPa 0,0 l/m 0 min 2 min 0 W/m 25,7 km/h (4 Bft) 97,87 %
16.02.2020 21:40 8,6 C 7,2 C 7,2 C 96 % 1005,8 hPa 0,2 l/m 0 min 2 min 0 W/m 12,9 km/h (3 Bft) 97,83 %
16.02.2020 21:42 8,6 C 7,2 C 7,2 C 96 % 1005,8 hPa 0,0 l/m 0 min 2 min 0 W/m 19,3 km/h (3 Bft) 97,87 %
16.02.2020 21:44 8,6 C 7,2 C 7,2 C 96 % 1006,0 hPa 0,2 l/m 0 min 2 min 0 W/m 12,9 km/h (3 Bft) 97,87 %
16.02.2020 21:46 8,6 C 7,2 C 7,2 C 96 % 1006,0 hPa 0,0 l/m 0 min 2 min 0 W/m 29,0 km/h (5 Bft) 100,00 %
16.02.2020 21:48 8,6 C 7,2 C 7,2 C 96 % 1006,1 hPa 0,0 l/m 0 min 2 min 0 W/m 19,3 km/h (3 Bft) 100,00 %
16.02.2020 21:50 8,6 C 7,2 C 7,2 C 96 % 1006,1 hPa 0,0 l/m 0 min 2 min 0 W/m 16,1 km/h (3 Bft) 100,00 %
16.02.2020 21:52 8,6 C 7,2 C 7,2 C 96 % 1006,0 hPa 0,2 l/m 0 min 2 min 0 W/m 25,7 km/h (4 Bft) 100,00 %
16.02.2020 21:54 8,6 C 7,2 C 7,2 C 96 % 1006,0 hPa 0,0 l/m 0 min 2 min 0 W/m 12,9 km/h (3 Bft) 100,00 %
16.02.2020 21:56 8,6 C 7,2 C 7,2 C 96 % 1006,0 hPa 0,2 l/m 0 min 2 min 0 W/m 16,1 km/h (3 Bft) 100,00 %
16.02.2020 21:58 8,6 C 7,2 C 7,2 C 96 % 1006,1 hPa 0,0 l/m 0 min 2 min 0 W/m 19,3 km/h (3 Bft) 100,00 %
16.02.2020 22:00 8,6 C 7,2 C 7,2 C 96 % 1006,2 hPa 0,0 l/m 0 min 2 min 0 W/m 16,1 km/h (3 Bft) 100,00 %
16.02.2020 22:02 8,6 C 7,2 C 7,2 C 96 % 1006,2 hPa 0,0 l/m 0 min 2 min 0 W/m 16,1 km/h (3 Bft) 100,00 %
16.02.2020 22:04 8,6 C 7,2 C 7,2 C 96 % 1006,2 hPa 0,2 l/m 0 min 2 min 0 W/m 19,3 km/h (3 Bft) 100,00 %
16.02.2020 22:06 8,6 C 7,2 C 7,2 C 96 % 1006,1 hPa 0,2 l/m 0 min 2 min 0 W/m 29,0 km/h (5 Bft) 97,87 %
16.02.2020 22:08 8,6 C 7,2 C 7,2 C 96 % 1006,1 hPa 0,0 l/m 0 min 2 min 0 W/m 22,5 km/h (4 Bft) 100,00 %
16.02.2020 22:10 8,6 C 7,2 C 7,2 C 96 % 1006,1 hPa 0,0 l/m 0 min 2 min 0 W/m 16,1 km/h (3 Bft) 100,00 %
16.02.2020 22:12 8,6 C 7,2 C 7,2 C 96 % 1006,3 hPa 0,2 l/m 0 min 2 min 0 W/m 16,1 km/h (3 Bft) 100,00 %
16.02.2020 22:14 8,6 C 7,2 C 6,7 C 96 % 1006,2 hPa 0,2 l/m 0 min 2 min 0 W/m 19,3 km/h (3 Bft) 97,83 %
16.02.2020 22:16 8,6 C 7,2 C 6,7 C 96 % 1006,2 hPa 0,0 l/m 0 min 2 min 0 W/m 25,7 km/h (4 Bft) 100,00 %
16.02.2020 22:18 8,5 C 7,2 C 6,7 C 96 % 1006,2 hPa 0,2 l/m 0 min 2 min 0 W/m 22,5 km/h (4 Bft) 100,00 %
16.02.2020 22:20 8,4 C 6,7 C 6,7 C 96 % 1006,2 hPa 0,2 l/m 0 min 2 min 0 W/m 25,7 km/h (4 Bft) 100,00 %
16.02.2020 22:22 8,4 C 6,7 C 6,7 C 96 % 1006,4 hPa 0,0 l/m 0 min 2 min 0 W/m 22,5 km/h (4 Bft) 100,00 %
16.02.2020 22:24 8,4 C 6,7 C 6,7 C 96 % 1006,7 hPa 0,0 l/m 0 min 2 min 0 W/m 29,0 km/h (5 Bft) 97,83 %
16.02.2020 22:26 8,4 C 6,7 C 6,7 C 96 % 1006,6 hPa 0,0 l/m 0 min 2 min 0 W/m 29,0 km/h (5 Bft) 97,87 %
16.02.2020 22:28 8,4 C 7,2 C 6,7 C 96 % 1006,6 hPa 0,2 l/m 0 min 2 min 0 W/m 22,5 km/h (4 Bft) 100,00 %
16.02.2020 22:30 8,4 C 6,7 C 6,7 C 96 % 1006,8 hPa 0,0 l/m 0 min 2 min 0 W/m 41,8 km/h (6 Bft) 97,87 %
16.02.2020 22:32 8,4 C 7,2 C 6,7 C 96 % 1006,6 hPa 0,2 l/m 0 min 2 min 0 W/m 29,0 km/h (5 Bft) 97,87 %
16.02.2020 22:34 8,3 C 7,2 C 6,7 C 96 % 1006,8 hPa 0,0 l/m 0 min 2 min 0 W/m 22,5 km/h (4 Bft) 95,74 %
16.02.2020 22:36 8,4 C 7,2 C 6,7 C 96 % 1006,9 hPa 0,0 l/m 0 min 2 min 0 W/m 16,1 km/h (3 Bft) 97,83 %
16.02.2020 22:38 8,3 C 7,2 C 6,7 C 96 % 1007,0 hPa 0,0 l/m 0 min 2 min 0 W/m 35,4 km/h (5 Bft) 97,87 %
16.02.2020 22:40 8,3 C 7,2 C 6,7 C 96 % 1007,1 hPa 0,0 l/m 0 min 2 min 0 W/m 19,3 km/h (3 Bft) 95,74 %
16.02.2020 22:42 8,4 C 7,2 C 6,7 C 96 % 1007,0 hPa 0,2 l/m 0 min 2 min 0 W/m 9,7 km/h (2 Bft) 97,87 %
16.02.2020 22:44 8,3 C 7,2 C 6,7 C 96 % 1006,9 hPa 0,2 l/m 0 min 2 min 0 W/m 25,7 km/h (4 Bft) 95,74 %
16.02.2020 22:46 8,3 C 7,2 C 6,7 C 96 % 1007,0 hPa 0,0 l/m 0 min 2 min 0 W/m 22,5 km/h (4 Bft) 97,87 %
16.02.2020 22:48 8,3 C 7,2 C 6,7 C 96 % 1007,0 hPa 0,0 l/m 0 min 2 min 0 W/m 19,3 km/h (3 Bft) 97,83 %
16.02.2020 22:50 8,3 C 6,7 C 6,7 C 96 % 1007,1 hPa 0,0 l/m 0 min 2 min 0 W/m 29,0 km/h (5 Bft) 97,87 %
16.02.2020 22:52 8,3 C 6,7 C 6,7 C 96 % 1007,1 hPa 0,2 l/m 0 min 2 min 0 W/m 19,3 km/h (3 Bft) 95,74 %
16.02.2020 22:54 8,3 C 6,7 C 6,7 C 96 % 1007,2 hPa 0,2 l/m 0 min 2 min 0 W/m 12,9 km/h (3 Bft) 97,87 %
16.02.2020 22:56 8,3 C 6,7 C 6,7 C 96 % 1007,1 hPa 0,0 l/m 0 min 2 min 0 W/m 29,0 km/h (5 Bft) 97,87 %
16.02.2020 22:58 8,3 C 6,7 C 6,7 C 96 % 1007,1 hPa 0,0 l/m 0 min 2 min 0 W/m 35,4 km/h (5 Bft) 95,74 %
16.02.2020 23:00 8,3 C 6,7 C 6,7 C 96 % 1007,0 hPa 0,0 l/m 0 min 2 min 0 W/m 41,8 km/h (6 Bft) 97,83 %
16.02.2020 23:02 8,2 C 6,7 C 6,7 C 96 % 1007,0 hPa 0,0 l/m 0 min 2 min 0 W/m 22,5 km/h (4 Bft) 97,87 %
16.02.2020 23:04 8,2 C 6,7 C 6,7 C 96 % 1007,0 hPa 0,0 l/m 0 min 2 min 0 W/m 25,7 km/h (4 Bft) 95,74 %
16.02.2020 23:06 8,2 C 6,7 C 6,7 C 96 % 1007,0 hPa 0,0 l/m 0 min 2 min 0 W/m 16,1 km/h (3 Bft) 93,62 %
16.02.2020 23:08 8,2 C 6,7 C 6,7 C 96 % 1007,1 hPa 0,0 l/m 0 min 2 min 0 W/m 12,9 km/h (3 Bft) 95,74 %
16.02.2020 23:10 8,2 C 6,7 C 6,7 C 96 % 1007,1 hPa 0,2 l/m 0 min 2 min 0 W/m 38,6 km/h (5 Bft) 95,74 %
16.02.2020 23:12 8,1 C 6,7 C 6,7 C 96 % 1007,3 hPa 0,0 l/m 0 min 2 min 0 W/m 25,7 km/h (4 Bft) 95,65 %
16.02.2020 23:14 8,1 C 6,7 C 6,7 C 96 % 1007,6 hPa 0,0 l/m 0 min 2 min 0 W/m 29,0 km/h (5 Bft) 93,62 %
16.02.2020 23:16 8,1 C 6,7 C 6,7 C 96 % 1007,6 hPa 0,0 l/m 0 min 2 min 0 W/m 25,7 km/h (4 Bft) 97,87 %
16.02.2020 23:18 8,1 C 6,7 C 6,7 C 96 % 1007,5 hPa 0,2 l/m 0 min 2 min 0 W/m 22,5 km/h (4 Bft) 97,87 %
16.02.2020 23:20 8,1 C 6,7 C 6,7 C 96 % 1007,5 hPa 0,0 l/m 0 min 2 min 0 W/m 29,0 km/h (5 Bft) 97,87 %
16.02.2020 23:22 8,1 C 6,7 C 6,7 C 96 % 1007,5 hPa 0,0 l/m 0 min 2 min 0 W/m 35,4 km/h (5 Bft) 97,87 %
16.02.2020 23:24 8,1 C 6,7 C 6,7 C 96 % 1007,5 hPa 0,0 l/m 0 min 2 min 0 W/m 22,5 km/h (4 Bft) 100,00 %
16.02.2020 23:26 8,1 C 6,7 C 6,1 C 96 % 1007,8 hPa 0,2 l/m 0 min 2 min 0 W/m 41,8 km/h (6 Bft) 97,87 %
16.02.2020 23:28 8,1 C 6,7 C 6,1 C 96 % 1007,9 hPa 0,0 l/m 0 min 2 min 0 W/m 48,3 km/h (6 Bft) 97,87 %
16.02.2020 23:30 8,0 C 6,7 C 6,1 C 96 % 1007,7 hPa 0,0 l/m 0 min 2 min 0 W/m 35,4 km/h (5 Bft) 95,74 %
16.02.2020 23:32 7,9 C 6,7 C 6,1 C 96 % 1008,1 hPa 0,2 l/m 0 min 2 min 0 W/m 29,0 km/h (5 Bft) 97,87 %
16.02.2020 23:34 7,9 C 6,7 C 6,1 C 96 % 1007,9 hPa 0,0 l/m 0 min 2 min 0 W/m 38,6 km/h (5 Bft) 97,83 %
16.02.2020 23:36 7,9 C 6,1 C 6,1 C 96 % 1007,6 hPa 0,0 l/m 0 min 2 min 0 W/m 22,5 km/h (4 Bft) 95,74 %
16.02.2020 23:38 7,9 C 6,1 C 6,1 C 96 % 1007,7 hPa 0,2 l/m 0 min 2 min 0 W/m 32,2 km/h (5 Bft) 97,87 %
16.02.2020 23:40 7,8 C 6,1 C 6,1 C 96 % 1007,7 hPa 0,0 l/m 0 min 2 min 0 W/m 25,7 km/h (4 Bft) 97,87 %
16.02.2020 23:42 7,8 C 6,1 C 6,1 C 96 % 1007,8 hPa 0,0 l/m 0 min 2 min 0 W/m 22,5 km/h (4 Bft) 97,87 %
16.02.2020 23:44 7,8 C 6,1 C 6,1 C 96 % 1007,9 hPa 0,2 l/m 0 min 2 min 0 W/m 25,7 km/h (4 Bft) 97,87 %
16.02.2020 23:46 7,8 C 6,1 C 6,1 C 96 % 1008,0 hPa 0,0 l/m 0 min 2 min 0 W/m 45,1 km/h (6 Bft) 95,65 %
16.02.2020 23:48 7,8 C 6,1 C 6,1 C 96 % 1008,0 hPa 0,0 l/m 0 min 2 min 0 W/m 29,0 km/h (5 Bft) 97,87 %
16.02.2020 23:50 7,8 C 6,1 C 6,1 C 96 % 1008,1 hPa 0,0 l/m 0 min 2 min 0 W/m 32,2 km/h (5 Bft) 100,00 %
16.02.2020 23:52 7,8 C 6,1 C 6,1 C 96 % 1008,2 hPa 0,0 l/m 0 min 2 min 0 W/m 29,0 km/h (5 Bft) 100,00 %
16.02.2020 23:54 7,8 C 6,1 C 6,1 C 96 % 1008,1 hPa 0,0 l/m 0 min 2 min 0 W/m 22,5 km/h (4 Bft) 100,00 %
16.02.2020 23:56 7,7 C 6,1 C 6,1 C 96 % 1008,2 hPa 0,0 l/m 0 min 2 min 0 W/m 32,2 km/h (5 Bft) 100,00 %
16.02.2020 23:58 7,7 C 6,1 C 6,1 C 96 % 1008,2 hPa 0,0 l/m 0 min 2 min 0 W/m 32,2 km/h (5 Bft) 100,00 %
_ Min-Zeit 23:56 23:36 23:26 17:26 18:28 - - - - 20:46 17:10
Minimum _ 7,7 C 6,1 C 6,1 C 65 % 998,4 hPa - - - - 9,7 km/h (2 Bft) 48,84 %
_ Max-Zeit 17:10 13:12 13:10 21:22 00:00 20:00 13:04 04:34 13:16 18:04 00:00
Maximum _ 17,8 C 17,8 C 16,7 C 96 % 1010,5 hPa 0,8 l/m 2 min 2 min 466 W/m 83,7 km/h
O-SO (9 Bft)
100,00 %
Durchschnitt _ 13,9 C 12,9 C 12,2 C 78 % 1005,0 hPa #12,2 l/m #28 min. #7:14 h 73 W/m 41,3 km/h (6 Bft) 97,49 %
© 2020 W. Hausmann